Wetterdaten: Mittwoch, 29.01.2014
Datum Zeit Temp. Aussen +5cm Feuchte Auss Luftdruck Regen Sonnenschein Regendauer UV Solar Windben
29.01.2014 00:00 2,4 C 0,6 C 87 % 998,0 hPa 0,0 l/m 0 min 0 min 0,0 UV-I 0 W/m 10,3 km/h (2 Bft)
29.01.2014 00:02 2,3 C 0,6 C 87 % 998,0 hPa 0,0 l/m 0 min 0 min 0,0 UV-I 0 W/m 7,7 km/h (2 Bft)
29.01.2014 00:04 2,3 C 0,6 C 87 % 998,1 hPa 0,0 l/m 0 min 0 min 0,0 UV-I 0 W/m 7,7 km/h (2 Bft)
29.01.2014 00:06 2,4 C 0,6 C 87 % 998,0 hPa 0,0 l/m 0 min 0 min 0,0 UV-I 0 W/m 18,0 km/h (3 Bft)
29.01.2014 00:08 2,4 C 0,6 C 87 % 998,0 hPa 0,0 l/m 0 min 0 min 0,0 UV-I 0 W/m 10,3 km/h (2 Bft)
29.01.2014 00:10 2,3 C 0,6 C 87 % 998,0 hPa 0,0 l/m 0 min 0 min 0,0 UV-I 0 W/m 7,7 km/h (2 Bft)
29.01.2014 00:12 2,3 C 0,6 C 87 % 998,1 hPa 0,0 l/m 0 min 0 min 0,0 UV-I 0 W/m 5,1 km/h (1 Bft)
29.01.2014 00:14 2,3 C 0,6 C 87 % 998,1 hPa 0,0 l/m 0 min 0 min 0,0 UV-I 0 W/m 2,6 km/h (1 Bft)
29.01.2014 00:16 2,2 C 0,6 C 88 % 998,1 hPa 0,0 l/m 0 min 0 min 0,0 UV-I 0 W/m 2,6 km/h (1 Bft)
29.01.2014 00:18 2,2 C 0,6 C 87 % 998,1 hPa 0,0 l/m 0 min 0 min 0,0 UV-I 0 W/m 5,1 km/h (1 Bft)
29.01.2014 00:20 2,1 C 0,0 C 88 % 998,1 hPa 0,0 l/m 0 min 0 min 0,0 UV-I 0 W/m 5,1 km/h (1 Bft)
29.01.2014 00:22 2,1 C 0,0 C 88 % 998,1 hPa 0,0 l/m 0 min 0 min 0,0 UV-I 0 W/m 0,0 km/h (0 Bft)
29.01.2014 00:24 2,1 C 0,0 C 88 % 998,0 hPa 0,0 l/m 0 min 0 min 0,0 UV-I 0 W/m 7,7 km/h (2 Bft)
29.01.2014 00:26 2,1 C 0,0 C 88 % 998,1 hPa 0,0 l/m 0 min 0 min 0,0 UV-I 0 W/m 2,6 km/h (1 Bft)
29.01.2014 00:28 2,0 C 0,0 C 88 % 998,2 hPa 0,0 l/m 0 min 0 min 0,0 UV-I 0 W/m 2,6 km/h (1 Bft)
29.01.2014 00:30 1,9 C 0,0 C 88 % 998,2 hPa 0,0 l/m 0 min 0 min 0,0 UV-I 0 W/m 0,0 km/h (0 Bft)
29.01.2014 00:32 1,9 C 0,0 C 88 % 998,3 hPa 0,0 l/m 0 min 0 min 0,0 UV-I 0 W/m 10,3 km/h (2 Bft)
29.01.2014 00:34 1,9 C 0,0 C 89 % 998,2 hPa 0,0 l/m 0 min 0 min 0,0 UV-I 0 W/m 7,7 km/h (2 Bft)
29.01.2014 00:36 2,0 C 0,6 C 89 % 998,2 hPa 0,0 l/m 0 min 0 min 0,0 UV-I 0 W/m 7,7 km/h (2 Bft)
29.01.2014 00:38 2,0 C 0,6 C 89 % 998,2 hPa 0,0 l/m 0 min 0 min 0,0 UV-I 0 W/m 5,1 km/h (1 Bft)
29.01.2014 00:40 1,9 C 0,0 C 89 % 998,2 hPa 0,0 l/m 0 min 0 min 0,0 UV-I 0 W/m 7,7 km/h (2 Bft)
29.01.2014 00:42 1,9 C 0,0 C 89 % 998,1 hPa 0,0 l/m 0 min 0 min 0,0 UV-I 0 W/m 0,0 km/h (0 Bft)
29.01.2014 00:44 1,9 C 0,0 C 89 % 998,3 hPa 0,0 l/m 0 min 0 min 0,0 UV-I 0 W/m 0,0 km/h (0 Bft)
29.01.2014 00:46 1,8 C 0,0 C 89 % 998,2 hPa 0,0 l/m 0 min 0 min 0,0 UV-I 0 W/m 2,6 km/h (1 Bft)
29.01.2014 00:48 1,8 C 0,0 C 89 % 998,2 hPa 0,0 l/m 0 min 0 min 0,0 UV-I 0 W/m 0,0 km/h (0 Bft)
29.01.2014 00:50 1,7 C 0,0 C 89 % 998,2 hPa 0,0 l/m 0 min 0 min 0,0 UV-I 0 W/m 0,0 km/h (0 Bft)
29.01.2014 00:52 1,7 C 0,0 C 89 % 998,2 hPa 0,0 l/m 0 min 0 min 0,0 UV-I 0 W/m 12,9 km/h (3 Bft)
29.01.2014 00:54 1,7 C 0,0 C 89 % 998,2 hPa 0,0 l/m 0 min 0 min 0,0 UV-I 0 W/m 5,1 km/h (1 Bft)
29.01.2014 00:56 1,7 C 0,0 C 89 % 998,3 hPa 0,0 l/m 0 min 0 min 0,0 UV-I 0 W/m 0,0 km/h (0 Bft)
29.01.2014 00:58 1,7 C 0,0 C 89 % 998,2 hPa 0,0 l/m 0 min 0 min 0,0 UV-I 0 W/m 2,6 km/h (1 Bft)
29.01.2014 01:00 1,7 C 0,0 C 89 % 998,2 hPa 0,0 l/m 0 min 0 min 0,0 UV-I 0 W/m 5,1 km/h (1 Bft)
29.01.2014 01:02 1,7 C 0,0 C 89 % 998,3 hPa 0,0 l/m 0 min 0 min 0,0 UV-I 0 W/m 10,3 km/h (2 Bft)
29.01.2014 01:04 1,7 C 0,0 C 89 % 998,3 hPa 0,0 l/m 0 min 0 min 0,0 UV-I 0 W/m 10,3 km/h (2 Bft)
29.01.2014 01:06 1,7 C 0,0 C 89 % 998,3 hPa 0,0 l/m 0 min 0 min 0,0 UV-I 0 W/m 7,7 km/h (2 Bft)
29.01.2014 01:08 1,8 C 0,0 C 89 % 998,3 hPa 0,0 l/m 0 min 0 min 0,0 UV-I 0 W/m 5,1 km/h (1 Bft)
29.01.2014 01:10 1,8 C 0,0 C 89 % 998,3 hPa 0,0 l/m 0 min 0 min 0,0 UV-I 0 W/m 10,3 km/h (2 Bft)
29.01.2014 01:12 1,7 C 0,0 C 89 % 998,3 hPa 0,0 l/m 0 min 0 min 0,0 UV-I 0 W/m 7,7 km/h (2 Bft)
29.01.2014 01:14 1,7 C 0,0 C 89 % 998,3 hPa 0,0 l/m 0 min 0 min 0,0 UV-I 0 W/m 12,9 km/h (3 Bft)
29.01.2014 01:16 1,7 C 0,0 C 89 % 998,3 hPa 0,0 l/m 0 min 0 min 0,0 UV-I 0 W/m 10,3 km/h (2 Bft)
29.01.2014 01:18 1,7 C 0,0 C 89 % 998,3 hPa 0,0 l/m 0 min 0 min 0,0 UV-I 0 W/m 5,1 km/h (1 Bft)
29.01.2014 01:20 1,7 C 0,0 C 89 % 998,3 hPa 0,0 l/m 0 min 0 min 0,0 UV-I 0 W/m 7,7 km/h (2 Bft)
29.01.2014 01:22 1,7 C 0,0 C 89 % 998,3 hPa 0,0 l/m 0 min 0 min 0,0 UV-I 0 W/m 7,7 km/h (2 Bft)
29.01.2014 01:24 1,7 C 0,0 C 89 % 998,3 hPa 0,0 l/m 0 min 0 min 0,0 UV-I 0 W/m 7,7 km/h (2 Bft)
29.01.2014 01:26 1,7 C 0,0 C 88 % 998,2 hPa 0,0 l/m 0 min 0 min 0,0 UV-I 0 W/m 5,1 km/h (1 Bft)
29.01.2014 01:28 1,7 C 0,0 C 88 % 998,3 hPa 0,0 l/m 0 min 0 min 0,0 UV-I 0 W/m 5,1 km/h (1 Bft)
29.01.2014 01:30 1,7 C 0,0 C 88 % 998,4 hPa 0,0 l/m 0 min 0 min 0,0 UV-I 0 W/m 7,7 km/h (2 Bft)
29.01.2014 01:32 1,7 C 0,0 C 88 % 998,3 hPa 0,0 l/m 0 min 0 min 0,0 UV-I 0 W/m 0,0 km/h (0 Bft)
29.01.2014 01:34 1,6 C 0,0 C 88 % 998,3 hPa 0,0 l/m 0 min 0 min 0,0 UV-I 0 W/m 15,4 km/h (3 Bft)
29.01.2014 01:36 1,6 C 0,0 C 88 % 998,3 hPa 0,0 l/m 0 min 0 min 0,0 UV-I 0 W/m 5,1 km/h (1 Bft)
29.01.2014 01:38 1,6 C 0,0 C 88 % 998,4 hPa 0,0 l/m 0 min 0 min 0,0 UV-I 0 W/m 5,1 km/h (1 Bft)
29.01.2014 01:40 1,5 C -0,6 C 88 % 998,4 hPa 0,0 l/m 0 min 0 min 0,0 UV-I 0 W/m 2,6 km/h (1 Bft)
29.01.2014 01:42 1,4 C -0,6 C 88 % 998,4 hPa 0,0 l/m 0 min 0 min 0,0 UV-I 0 W/m 15,4 km/h (3 Bft)
29.01.2014 01:44 1,4 C -0,6 C 89 % 998,5 hPa 0,0 l/m 0 min 0 min 0,0 UV-I 0 W/m 12,9 km/h (3 Bft)
29.01.2014 01:46 1,4 C -0,6 C 89 % 998,4 hPa 0,0 l/m 0 min 0 min 0,0 UV-I 0 W/m 12,9 km/h (3 Bft)
29.01.2014 01:48 1,4 C 0,0 C 89 % 998,4 hPa 0,0 l/m 0 min 0 min 0,0 UV-I 0 W/m 12,9 km/h (3 Bft)
29.01.2014 01:50 1,4 C 0,0 C 89 % 998,5 hPa 0,0 l/m 0 min 0 min 0,0 UV-I 0 W/m 7,7 km/h (2 Bft)
29.01.2014 01:52 1,4 C -0,6 C 89 % 998,4 hPa 0,0 l/m 0 min 0 min 0,0 UV-I 0 W/m 10,3 km/h (2 Bft)
29.01.2014 01:54 1,4 C -0,6 C 88 % 998,4 hPa 0,0 l/m 0 min 0 min 0,0 UV-I 0 W/m 5,1 km/h (1 Bft)
29.01.2014 01:56 1,4 C -0,6 C 88 % 998,4 hPa 0,0 l/m 0 min 0 min 0,0 UV-I 0 W/m 10,3 km/h (2 Bft)
29.01.2014 01:58 1,3 C -0,6 C 88 % 998,4 hPa 0,0 l/m 0 min 0 min 0,0 UV-I 0 W/m 10,3 km/h (2 Bft)
29.01.2014 02:00 1,3 C -0,6 C 88 % 998,4 hPa 0,0 l/m 0 min 0 min 0,0 UV-I 0 W/m 2,6 km/h (1 Bft)
29.01.2014 02:02 1,3 C -0,6 C 88 % 998,4 hPa 0,0 l/m 0 min 0 min 0,0 UV-I 0 W/m 0,0 km/h (0 Bft)
29.01.2014 02:04 1,3 C -0,6 C 88 % 998,4 hPa 0,0 l/m 0 min 0 min 0,0 UV-I 0 W/m 0,0 km/h (0 Bft)
29.01.2014 02:06 1,2 C -0,6 C 89 % 998,3 hPa 0,0 l/m 0 min 0 min 0,0 UV-I 0 W/m 0,0 km/h (0 Bft)
29.01.2014 02:08 1,2 C -0,6 C 89 % 998,3 hPa 0,0 l/m 0 min 0 min 0,0 UV-I 0 W/m 2,6 km/h (1 Bft)
29.01.2014 02:10 1,3 C -0,6 C 89 % 998,3 hPa 0,0 l/m 0 min 0 min 0,0 UV-I 0 W/m 7,7 km/h (2 Bft)
29.01.2014 02:12 1,3 C -0,6 C 89 % 998,3 hPa 0,0 l/m 0 min 0 min 0,0 UV-I 0 W/m 10,3 km/h (2 Bft)
29.01.2014 02:14 1,3 C -0,6 C 89 % 998,4 hPa 0,0 l/m 0 min 0 min 0,0 UV-I 0 W/m 10,3 km/h (2 Bft)
29.01.2014 02:16 1,2 C -0,6 C 89 % 998,4 hPa 0,0 l/m 0 min 0 min 0,0 UV-I 0 W/m 7,7 km/h (2 Bft)
29.01.2014 02:18 1,2 C -0,6 C 89 % 998,4 hPa 0,0 l/m 0 min 0 min 0,0 UV-I 0 W/m 0,0 km/h (0 Bft)
29.01.2014 02:20 1,2 C -0,6 C 89 % 998,4 hPa 0,0 l/m 0 min 0 min 0,0 UV-I 0 W/m 0,0 km/h (0 Bft)
29.01.2014 02:22 1,2 C -0,6 C 89 % 998,4 hPa 0,0 l/m 0 min 0 min 0,0 UV-I 0 W/m 2,6 km/h (1 Bft)
29.01.2014 02:24 1,1 C -0,6 C 89 % 998,6 hPa 0,0 l/m 0 min 0 min 0,0 UV-I 0 W/m 7,7 km/h (2 Bft)
29.01.2014 02:26 1,1 C -0,6 C 89 % 998,5 hPa 0,0 l/m 0 min 0 min 0,0 UV-I 0 W/m 0,0 km/h (0 Bft)
29.01.2014 02:28 1,1 C -0,6 C 89 % 998,5 hPa 0,0 l/m 0 min 0 min 0,0 UV-I 0 W/m 5,1 km/h (1 Bft)
29.01.2014 02:30 1,1 C -0,6 C 89 % 998,5 hPa 0,0 l/m 0 min 0 min 0,0 UV-I 0 W/m 0,0 km/h (0 Bft)
29.01.2014 02:32 1,1 C -0,6 C 89 % 998,5 hPa 0,0 l/m 0 min 0 min 0,0 UV-I 0 W/m 7,7 km/h (2 Bft)
29.01.2014 02:34 1,1 C -0,6 C 89 % 998,4 hPa 0,0 l/m 0 min 0 min 0,0 UV-I 0 W/m 2,6 km/h (1 Bft)
29.01.2014 02:36 1,0 C -1,1 C 89 % 998,5 hPa 0,0 l/m 0 min 0 min 0,0 UV-I 0 W/m 0,0 km/h (0 Bft)
29.01.2014 02:38 1,0 C -1,1 C 89 % 998,5 hPa 0,0 l/m 0 min 0 min 0,0 UV-I 0 W/m 7,7 km/h (2 Bft)
29.01.2014 02:40 1,0 C -1,1 C 89 % 998,6 hPa 0,0 l/m 0 min 0 min 0,0 UV-I 0 W/m 2,6 km/h (1 Bft)
29.01.2014 02:42 1,0 C -1,1 C 89 % 998,5 hPa 0,0 l/m 0 min 0 min 0,0 UV-I 0 W/m 0,0 km/h (0 Bft)
29.01.2014 02:44 1,0 C -1,1 C 89 % 998,5 hPa 0,0 l/m 0 min 0 min 0,0 UV-I 0 W/m 0,0 km/h (0 Bft)
29.01.2014 02:46 0,9 C -1,1 C 89 % 998,5 hPa 0,0 l/m 0 min 0 min 0,0 UV-I 0 W/m 10,3 km/h (2 Bft)
29.01.2014 02:48 0,9 C -1,1 C 89 % 998,4 hPa 0,0 l/m 0 min 0 min 0,0 UV-I 0 W/m 0,0 km/h (0 Bft)
29.01.2014 02:50 0,9 C -1,1 C 89 % 998,5 hPa 0,0 l/m 0 min 0 min 0,0 UV-I 0 W/m 0,0 km/h (0 Bft)
29.01.2014 02:52 0,9 C -1,1 C 89 % 998,4 hPa 0,0 l/m 0 min 0 min 0,0 UV-I 0 W/m 0,0 km/h (0 Bft)
29.01.2014 02:54 0,9 C -1,1 C 89 % 998,5 hPa 0,0 l/m 0 min 0 min 0,0 UV-I 0 W/m 12,9 km/h (3 Bft)
29.01.2014 02:56 0,9 C -1,1 C 95 % 998,4 hPa 0,0 l/m 0 min 0 min 0,0 UV-I 0 W/m 0,0 km/h (0 Bft)
29.01.2014 02:58 1,0 C -0,6 C 89 % 998,4 hPa 0,0 l/m 0 min 0 min 0,0 UV-I 0 W/m 2,6 km/h (1 Bft)
29.01.2014 03:00 1,0 C -0,6 C 89 % 998,5 hPa 0,0 l/m 0 min 0 min 0,0 UV-I 0 W/m 12,9 km/h (3 Bft)
29.01.2014 03:02 1,1 C -0,6 C 90 % 998,4 hPa 0,0 l/m 0 min 0 min 0,0 UV-I 0 W/m 12,9 km/h (3 Bft)
29.01.2014 03:04 1,1 C -0,6 C 89 % 998,5 hPa 0,0 l/m 0 min 0 min 0,0 UV-I 0 W/m 2,6 km/h (1 Bft)
29.01.2014 03:06 1,1 C -0,6 C 89 % 998,5 hPa 0,0 l/m 0 min 0 min 0,0 UV-I 0 W/m 7,7 km/h (2 Bft)
29.01.2014 03:08 1,1 C -0,6 C 89 % 998,4 hPa 0,0 l/m 0 min 0 min 0,0 UV-I 0 W/m 5,1 km/h (1 Bft)
29.01.2014 03:10 1,1 C -0,6 C 89 % 998,5 hPa 0,0 l/m 0 min 0 min 0,0 UV-I 0 W/m 7,7 km/h (2 Bft)
29.01.2014 03:12 1,1 C -0,6 C 89 % 998,5 hPa 0,0 l/m 0 min 0 min 0,0 UV-I 0 W/m 12,9 km/h (3 Bft)
29.01.2014 03:14 1,1 C -0,6 C 89 % 998,5 hPa 0,0 l/m 0 min 0 min 0,0 UV-I 0 W/m 2,6 km/h (1 Bft)
29.01.2014 03:16 1,1 C -0,6 C 89 % 998,5 hPa 0,0 l/m 0 min 0 min 0,0 UV-I 0 W/m 2,6 km/h (1 Bft)
29.01.2014 03:18 1,1 C -0,6 C 89 % 998,5 hPa 0,0 l/m 0 min 0 min 0,0 UV-I 0 W/m 5,1 km/h (1 Bft)
29.01.2014 03:20 1,1 C -0,6 C 89 % 998,5 hPa 0,0 l/m 0 min 0 min 0,0 UV-I 0 W/m 10,3 km/h (2 Bft)
29.01.2014 03:22 1,2 C -0,6 C 89 % 998,4 hPa 0,0 l/m 0 min 0 min 0,0 UV-I 0 W/m 7,7 km/h (2 Bft)
29.01.2014 03:24 1,2 C -0,6 C 89 % 998,5 hPa 0,0 l/m 0 min 0 min 0,0 UV-I 0 W/m 18,0 km/h (3 Bft)
29.01.2014 03:26 1,2 C -0,6 C 89 % 998,5 hPa 0,0 l/m 0 min 0 min 0,0 UV-I 0 W/m 7,7 km/h (2 Bft)
29.01.2014 03:28 1,2 C -0,6 C 89 % 998,5 hPa 0,0 l/m 0 min 0 min 0,0 UV-I 0 W/m 10,3 km/h (2 Bft)
29.01.2014 03:30 1,3 C -0,6 C 89 % 998,5 hPa 0,0 l/m 0 min 0 min 0,0 UV-I 0 W/m 10,3 km/h (2 Bft)
29.01.2014 03:32 1,3 C -0,6 C 89 % 998,4 hPa 0,0 l/m 0 min 0 min 0,0 UV-I 0 W/m 7,7 km/h (2 Bft)
29.01.2014 03:34 1,3 C -0,6 C 88 % 998,5 hPa 0,0 l/m 0 min 0 min 0,0 UV-I 0 W/m 7,7 km/h (2 Bft)
29.01.2014 03:36 1,3 C -0,6 C 88 % 998,5 hPa 0,0 l/m 0 min 0 min 0,0 UV-I 0 W/m 7,7 km/h (2 Bft)
29.01.2014 03:38 1,3 C -0,6 C 88 % 998,5 hPa 0,0 l/m 0 min 0 min 0,0 UV-I 0 W/m 12,9 km/h (3 Bft)
29.01.2014 03:40 1,3 C -0,6 C 88 % 998,5 hPa 0,0 l/m 0 min 0 min 0,0 UV-I 0 W/m 5,1 km/h (1 Bft)
29.01.2014 03:42 1,3 C -0,6 C 88 % 998,6 hPa 0,0 l/m 0 min 0 min 0,0 UV-I 0 W/m 7,7 km/h (2 Bft)
29.01.2014 03:44 1,3 C 0,0 C 88 % 998,5 hPa 0,0 l/m 0 min 0 min 0,0 UV-I 0 W/m 12,9 km/h (3 Bft)
29.01.2014 03:46 1,3 C 0,0 C 88 % 998,5 hPa 0,0 l/m 0 min 0 min 0,0 UV-I 0 W/m 10,3 km/h (2 Bft)
29.01.2014 03:48 1,3 C -0,6 C 88 % 998,5 hPa 0,0 l/m 0 min 0 min 0,0 UV-I 0 W/m 10,3 km/h (2 Bft)
29.01.2014 03:50 1,3 C -0,6 C 88 % 998,5 hPa 0,0 l/m 0 min 0 min 0,0 UV-I 0 W/m 7,7 km/h (2 Bft)
29.01.2014 03:52 1,2 C -0,6 C 88 % 998,5 hPa 0,0 l/m 0 min 0 min 0,0 UV-I 0 W/m 18,0 km/h (3 Bft)
29.01.2014 03:54 1,3 C -0,6 C 88 % 998,5 hPa 0,0 l/m 0 min 0 min 0,0 UV-I 0 W/m 7,7 km/h (2 Bft)
29.01.2014 03:56 1,3 C -0,6 C 88 % 998,5 hPa 0,0 l/m 0 min 0 min 0,0 UV-I 0 W/m 20,6 km/h (4 Bft)
29.01.2014 03:58 1,3 C -0,6 C 88 % 998,5 hPa 0,0 l/m 0 min 0 min 0,0 UV-I 0 W/m 18,0 km/h (3 Bft)
29.01.2014 04:00 1,2 C -0,6 C 88 % 998,5 hPa 0,0 l/m 0 min 0 min 0,0 UV-I 0 W/m 12,9 km/h (3 Bft)
29.01.2014 04:02 1,2 C -0,6 C 88 % 998,5 hPa 0,0 l/m 0 min 0 min 0,0 UV-I 0 W/m 10,3 km/h (2 Bft)
29.01.2014 04:04 1,2 C -0,6 C 88 % 998,5 hPa 0,0 l/m 0 min 0 min 0,0 UV-I 0 W/m 12,9 km/h (3 Bft)
29.01.2014 04:06 1,2 C -0,6 C 88 % 998,5 hPa 0,0 l/m 0 min 0 min 0,0 UV-I 0 W/m 12,9 km/h (3 Bft)
29.01.2014 04:08 1,2 C -0,6 C 88 % 998,5 hPa 0,0 l/m 0 min 0 min 0,0 UV-I 0 W/m 10,3 km/h (2 Bft)
29.01.2014 04:10 1,2 C -0,6 C 88 % 998,5 hPa 0,0 l/m 0 min 0 min 0,0 UV-I 0 W/m 18,0 km/h (3 Bft)
29.01.2014 04:12 1,2 C -0,6 C 88 % 998,5 hPa 0,0 l/m 0 min 0 min 0,0 UV-I 0 W/m 10,3 km/h (2 Bft)
29.01.2014 04:14 1,2 C -0,6 C 88 % 998,4 hPa 0,0 l/m 0 min 0 min 0,0 UV-I 0 W/m 10,3 km/h (2 Bft)
29.01.2014 04:16 1,2 C -0,6 C 88 % 998,4 hPa 0,0 l/m 0 min 0 min 0,0 UV-I 0 W/m 7,7 km/h (2 Bft)
29.01.2014 04:18 1,1 C -0,6 C 88 % 998,4 hPa 0,0 l/m 0 min 0 min 0,0 UV-I 0 W/m 7,7 km/h (2 Bft)
29.01.2014 04:20 1,1 C -0,6 C 88 % 998,4 hPa 0,0 l/m 0 min 0 min 0,0 UV-I 0 W/m 15,4 km/h (3 Bft)
29.01.2014 04:22 1,1 C -0,6 C 88 % 998,4 hPa 0,0 l/m 0 min 0 min 0,0 UV-I 0 W/m 18,0 km/h (3 Bft)
29.01.2014 04:24 1,1 C -0,6 C 88 % 998,3 hPa 0,0 l/m 0 min 0 min 0,0 UV-I 0 W/m 12,9 km/h (3 Bft)
29.01.2014 04:26 1,1 C -0,6 C 89 % 998,3 hPa 0,0 l/m 0 min 0 min 0,0 UV-I 0 W/m 10,3 km/h (2 Bft)
29.01.2014 04:28 1,1 C -0,6 C 89 % 998,4 hPa 0,0 l/m 0 min 0 min 0,0 UV-I 0 W/m 12,9 km/h (3 Bft)
29.01.2014 04:30 1,0 C -0,6 C 89 % 998,4 hPa 0,0 l/m 0 min 0 min 0,0 UV-I 0 W/m 18,0 km/h (3 Bft)
29.01.2014 04:32 1,0 C -0,6 C 89 % 998,4 hPa 0,0 l/m 0 min 0 min 0,0 UV-I 0 W/m 10,3 km/h (2 Bft)
29.01.2014 04:34 1,0 C -0,6 C 89 % 998,3 hPa 0,0 l/m 0 min 0 min 0,0 UV-I 0 W/m 10,3 km/h (2 Bft)
29.01.2014 04:36 1,0 C -0,6 C 89 % 998,3 hPa 0,0 l/m 0 min 0 min 0,0 UV-I 0 W/m 5,1 km/h (1 Bft)
29.01.2014 04:38 0,9 C -0,6 C 89 % 998,4 hPa 0,0 l/m 0 min 0 min 0,0 UV-I 0 W/m 12,9 km/h (3 Bft)
29.01.2014 04:40 0,9 C -0,6 C 89 % 998,4 hPa 0,0 l/m 0 min 0 min 0,0 UV-I 0 W/m 10,3 km/h (2 Bft)
29.01.2014 04:42 0,9 C -0,6 C 89 % 998,3 hPa 0,0 l/m 0 min 0 min 0,0 UV-I 0 W/m 15,4 km/h (3 Bft)
29.01.2014 04:44 0,9 C -0,6 C 89 % 998,3 hPa 0,0 l/m 0 min 0 min 0,0 UV-I 0 W/m 7,7 km/h (2 Bft)
29.01.2014 04:46 0,9 C -0,6 C 89 % 998,3 hPa 0,0 l/m 0 min 0 min 0,0 UV-I 0 W/m 7,7 km/h (2 Bft)
29.01.2014 04:48 0,9 C -0,6 C 89 % 998,3 hPa 0,0 l/m 0 min 0 min 0,0 UV-I 0 W/m 12,9 km/h (3 Bft)
29.01.2014 04:50 0,9 C -0,6 C 89 % 998,3 hPa 0,0 l/m 0 min 0 min 0,0 UV-I 0 W/m 18,0 km/h (3 Bft)
29.01.2014 04:52 0,9 C -0,6 C 89 % 998,3 hPa 0,0 l/m 0 min 0 min 0,0 UV-I 0 W/m 18,0 km/h (3 Bft)
29.01.2014 04:54 0,8 C -0,6 C 89 % 998,3 hPa 0,0 l/m 0 min 0 min 0,0 UV-I 0 W/m 10,3 km/h (2 Bft)
29.01.2014 04:56 0,8 C -0,6 C 89 % 998,3 hPa 0,0 l/m 0 min 0 min 0,0 UV-I 0 W/m 7,7 km/h (2 Bft)
29.01.2014 04:58 0,8 C -0,6 C 89 % 998,4 hPa 0,0 l/m 0 min 0 min 0,0 UV-I 0 W/m 18,0 km/h (3 Bft)
29.01.2014 05:00 0,8 C -0,6 C 89 % 998,3 hPa 0,0 l/m 0 min 0 min 0,0 UV-I 0 W/m 7,7 km/h (2 Bft)
29.01.2014 05:02 0,8 C -0,6 C 89 % 998,4 hPa 0,0 l/m 0 min 0 min 0,0 UV-I 0 W/m 2,6 km/h (1 Bft)
29.01.2014 05:04 0,8 C -0,6 C 89 % 998,3 hPa 0,0 l/m 0 min 0 min 0,0 UV-I 0 W/m 15,4 km/h (3 Bft)
29.01.2014 05:06 0,7 C -0,6 C 89 % 998,4 hPa 0,0 l/m 0 min 0 min 0,0 UV-I 0 W/m 18,0 km/h (3 Bft)
29.01.2014 05:08 0,8 C -0,6 C 89 % 998,4 hPa 0,0 l/m 0 min 0 min 0,0 UV-I 0 W/m 20,6 km/h (4 Bft)
29.01.2014 05:10 0,8 C -0,6 C 89 % 998,4 hPa 0,0 l/m 0 min 0 min 0,0 UV-I 0 W/m 20,6 km/h (4 Bft)
29.01.2014 05:12 0,8 C -0,6 C 89 % 998,5 hPa 0,0 l/m 0 min 0 min 0,0 UV-I 0 W/m 15,4 km/h (3 Bft)
29.01.2014 05:14 0,8 C -0,6 C 89 % 998,6 hPa 0,0 l/m 0 min 0 min 0,0 UV-I 0 W/m 15,4 km/h (3 Bft)
29.01.2014 05:16 0,8 C -0,6 C 89 % 998,6 hPa 0,0 l/m 0 min 0 min 0,0 UV-I 0 W/m 10,3 km/h (2 Bft)
29.01.2014 05:18 0,8 C -0,6 C 89 % 998,7 hPa 0,0 l/m 0 min 0 min 0,0 UV-I 0 W/m 18,0 km/h (3 Bft)
29.01.2014 05:20 0,8 C -0,6 C 89 % 998,5 hPa 0,0 l/m 0 min 0 min 0,0 UV-I 0 W/m 18,0 km/h (3 Bft)
29.01.2014 05:22 0,7 C -0,6 C 89 % 998,6 hPa 0,0 l/m 0 min 0 min 0,0 UV-I 0 W/m 12,9 km/h (3 Bft)
29.01.2014 05:24 0,7 C -0,6 C 89 % 998,7 hPa 0,0 l/m 0 min 0 min 0,0 UV-I 0 W/m 7,7 km/h (2 Bft)
29.01.2014 05:26 0,7 C -0,6 C 89 % 998,7 hPa 0,0 l/m 0 min 0 min 0,0 UV-I 0 W/m 10,3 km/h (2 Bft)
29.01.2014 05:28 0,7 C -0,6 C 89 % 998,7 hPa 0,0 l/m 0 min 0 min 0,0 UV-I 0 W/m 5,1 km/h (1 Bft)
29.01.2014 05:30 0,7 C -1,1 C 89 % 998,8 hPa 0,0 l/m 0 min 0 min 0,0 UV-I 0 W/m 12,9 km/h (3 Bft)
29.01.2014 05:32 0,6 C -1,1 C 89 % 998,8 hPa 0,0 l/m 0 min 0 min 0,0 UV-I 0 W/m 10,3 km/h (2 Bft)
29.01.2014 05:34 0,6 C -1,1 C 89 % 998,8 hPa 0,0 l/m 0 min 0 min 0,0 UV-I 0 W/m 12,9 km/h (3 Bft)
29.01.2014 05:36 0,6 C -1,1 C 89 % 998,8 hPa 0,0 l/m 0 min 0 min 0,0 UV-I 0 W/m 0,0 km/h (0 Bft)
29.01.2014 05:38 0,5 C -1,1 C 89 % 998,7 hPa 0,0 l/m 0 min 0 min 0,0 UV-I 0 W/m 5,1 km/h (1 Bft)
29.01.2014 05:40 0,5 C -1,1 C 89 % 998,7 hPa 0,0 l/m 0 min 0 min 0,0 UV-I 0 W/m 7,7 km/h (2 Bft)
29.01.2014 05:42 0,5 C -1,1 C 89 % 998,8 hPa 0,0 l/m 0 min 0 min 0,0 UV-I 0 W/m 5,1 km/h (1 Bft)
29.01.2014 05:44 0,5 C -1,1 C 89 % 998,7 hPa 0,0 l/m 0 min 0 min 0,0 UV-I 0 W/m 12,9 km/h (3 Bft)
29.01.2014 05:46 0,5 C -1,1 C 90 % 998,8 hPa 0,0 l/m 0 min 0 min 0,0 UV-I 0 W/m 7,7 km/h (2 Bft)
29.01.2014 05:48 0,5 C -1,1 C 90 % 998,9 hPa 0,0 l/m 0 min 0 min 0,0 UV-I 0 W/m 10,3 km/h (2 Bft)
29.01.2014 05:50 0,4 C -1,1 C 90 % 998,8 hPa 0,0 l/m 0 min 0 min 0,0 UV-I 0 W/m 0,0 km/h (0 Bft)
29.01.2014 05:52 0,4 C -1,1 C 90 % 998,8 hPa 0,0 l/m 0 min 0 min 0,0 UV-I 0 W/m 10,3 km/h (2 Bft)
29.01.2014 05:54 0,4 C -1,1 C 90 % 998,7 hPa 0,0 l/m 0 min 0 min 0,0 UV-I 0 W/m 7,7 km/h (2 Bft)
29.01.2014 05:56 0,4 C -1,1 C 90 % 998,7 hPa 0,0 l/m 0 min 0 min 0,0 UV-I 0 W/m 5,1 km/h (1 Bft)
29.01.2014 05:58 0,4 C -1,1 C 90 % 998,8 hPa 0,0 l/m 0 min 0 min 0,0 UV-I 0 W/m 7,7 km/h (2 Bft)
29.01.2014 06:00 0,4 C -1,1 C 90 % 998,8 hPa 0,0 l/m 0 min 0 min 0,0 UV-I 0 W/m 7,7 km/h (2 Bft)
29.01.2014 06:02 0,4 C -1,1 C 90 % 998,8 hPa 0,0 l/m 0 min 0 min 0,0 UV-I 0 W/m 10,3 km/h (2 Bft)
29.01.2014 06:04 0,4 C -1,1 C 90 % 998,9 hPa 0,0 l/m 0 min 0 min 0,0 UV-I 0 W/m 12,9 km/h (3 Bft)
29.01.2014 06:06 0,4 C -1,1 C 90 % 998,9 hPa 0,0 l/m 0 min 0 min 0,0 UV-I 0 W/m 15,4 km/h (3 Bft)
29.01.2014 06:08 0,4 C -1,1 C 90 % 999,0 hPa 0,0 l/m 0 min 0 min 0,0 UV-I 0 W/m 12,9 km/h (3 Bft)
29.01.2014 06:10 0,4 C -1,1 C 90 % 998,9 hPa 0,0 l/m 0 min 0 min 0,0 UV-I 0 W/m 7,7 km/h (2 Bft)
29.01.2014 06:12 0,4 C -1,1 C 90 % 998,8 hPa 0,0 l/m 0 min 0 min 0,0 UV-I 0 W/m 12,9 km/h (3 Bft)
29.01.2014 06:14 0,4 C -1,1 C 90 % 998,9 hPa 0,0 l/m 0 min 0 min 0,0 UV-I 0 W/m 18,0 km/h (3 Bft)
29.01.2014 06:16 0,4 C -1,1 C 90 % 998,9 hPa 0,0 l/m 0 min 0 min 0,0 UV-I 0 W/m 12,9 km/h (3 Bft)
29.01.2014 06:18 0,4 C -1,1 C 90 % 998,9 hPa 0,0 l/m 0 min 0 min 0,0 UV-I 0 W/m 0,0 km/h (0 Bft)
29.01.2014 06:20 0,4 C -1,1 C 90 % 998,8 hPa 0,0 l/m 0 min 0 min 0,0 UV-I 0 W/m 12,9 km/h (3 Bft)
29.01.2014 06:22 0,4 C -1,1 C 90 % 998,8 hPa 0,0 l/m 0 min 0 min 0,0 UV-I 0 W/m 18,0 km/h (3 Bft)
29.01.2014 06:24 0,4 C -1,1 C 90 % 998,9 hPa 0,0 l/m 0 min 0 min 0,0 UV-I 0 W/m 10,3 km/h (2 Bft)
29.01.2014 06:26 0,4 C -1,1 C 90 % 998,8 hPa 0,0 l/m 0 min 0 min 0,0 UV-I 0 W/m 7,7 km/h (2 Bft)
29.01.2014 06:28 0,3 C -1,1 C 90 % 998,8 hPa 0,0 l/m 0 min 0 min 0,0 UV-I 0 W/m 2,6 km/h (1 Bft)
29.01.2014 06:30 0,3 C -1,1 C 90 % 998,8 hPa 0,0 l/m 0 min 0 min 0,0 UV-I 0 W/m 12,9 km/h (3 Bft)
29.01.2014 06:32 0,3 C -1,1 C 90 % 998,8 hPa 0,0 l/m 0 min 0 min 0,0 UV-I 0 W/m 18,0 km/h (3 Bft)
29.01.2014 06:34 0,3 C -1,1 C 90 % 998,8 hPa 0,0 l/m 0 min 0 min 0,0 UV-I 0 W/m 15,4 km/h (3 Bft)
29.01.2014 06:36 0,3 C -1,1 C 90 % 998,8 hPa 0,0 l/m 0 min 0 min 0,0 UV-I 0 W/m 10,3 km/h (2 Bft)
29.01.2014 06:38 0,3 C -1,1 C 90 % 998,8 hPa 0,0 l/m 0 min 0 min 0,0 UV-I 0 W/m 12,9 km/h (3 Bft)
29.01.2014 06:40 0,3 C -1,1 C 90 % 998,8 hPa 0,0 l/m 0 min 0 min 0,0 UV-I 0 W/m 10,3 km/h (2 Bft)
29.01.2014 06:42 0,3 C -1,1 C 90 % 998,9 hPa 0,0 l/m 0 min 0 min 0,0 UV-I 0 W/m 12,9 km/h (3 Bft)
29.01.2014 06:44 0,3 C -1,1 C 90 % 998,9 hPa 0,0 l/m 0 min 0 min 0,0 UV-I 0 W/m 12,9 km/h (3 Bft)
29.01.2014 06:46 0,2 C -1,1 C 90 % 998,9 hPa 0,0 l/m 0 min 0 min 0,0 UV-I 0 W/m 7,7 km/h (2 Bft)
29.01.2014 06:48 0,2 C -1,1 C 90 % 998,9 hPa 0,0 l/m 0 min 0 min 0,0 UV-I 0 W/m 7,7 km/h (2 Bft)
29.01.2014 06:50 0,2 C -1,1 C 90 % 998,9 hPa 0,0 l/m 0 min 0 min 0,0 UV-I 0 W/m 7,7 km/h (2 Bft)
29.01.2014 06:52 0,2 C -1,1 C 90 % 998,9 hPa 0,0 l/m 0 min 0 min 0,0 UV-I 0 W/m 5,1 km/h (1 Bft)
29.01.2014 06:54 0,1 C -1,1 C 90 % 998,9 hPa 0,0 l/m 0 min 0 min 0,0 UV-I 0 W/m 5,1 km/h (1 Bft)
29.01.2014 06:56 0,1 C -1,1 C 90 % 999,0 hPa 0,0 l/m 0 min 0 min 0,0 UV-I 0 W/m 7,7 km/h (2 Bft)
29.01.2014 06:58 0,1 C -1,1 C 90 % 999,2 hPa 0,0 l/m 0 min 0 min 0,0 UV-I 0 W/m 10,3 km/h (2 Bft)
29.01.2014 07:00 0,1 C -1,1 C 91 % 999,2 hPa 0,0 l/m 0 min 0 min 0,0 UV-I 0 W/m 5,1 km/h (1 Bft)
29.01.2014 07:02 0,1 C -1,7 C 91 % 999,1 hPa 0,0 l/m 0 min 0 min 0,0 UV-I 0 W/m 7,7 km/h (2 Bft)
29.01.2014 07:04 0,1 C -1,7 C 91 % 999,2 hPa 0,0 l/m 0 min 0 min 0,0 UV-I 0 W/m 5,1 km/h (1 Bft)
29.01.2014 07:06 0,1 C -1,7 C 91 % 999,3 hPa 0,0 l/m 0 min 0 min 0,0 UV-I 0 W/m 5,1 km/h (1 Bft)
29.01.2014 07:08 0,1 C -1,7 C 91 % 999,3 hPa 0,0 l/m 0 min 0 min 0,0 UV-I 0 W/m 2,6 km/h (1 Bft)
29.01.2014 07:10 0,0 C -1,7 C 91 % 999,3 hPa 0,0 l/m 0 min 0 min 0,0 UV-I 0 W/m 2,6 km/h (1 Bft)
29.01.2014 07:12 0,0 C -1,7 C 91 % 999,3 hPa 0,0 l/m 0 min 0 min 0,0 UV-I 0 W/m 7,7 km/h (2 Bft)
29.01.2014 07:14 0,0 C -1,7 C 91 % 999,3 hPa 0,0 l/m 0 min 0 min 0,0 UV-I 0 W/m 2,6 km/h (1 Bft)
29.01.2014 07:16 0,0 C -1,7 C 91 % 999,3 hPa 0,0 l/m 0 min 0 min 0,0 UV-I 0 W/m 2,6 km/h (1 Bft)
29.01.2014 07:18 0,0 C -1,7 C 91 % 999,4 hPa 0,0 l/m 0 min 0 min 0,0 UV-I 0 W/m 7,7 km/h (2 Bft)
29.01.2014 07:20 0,0 C -1,7 C 91 % 999,3 hPa 0,0 l/m 0 min 0 min 0,0 UV-I 0 W/m 5,1 km/h (1 Bft)
29.01.2014 07:22 0,0 C -1,1 C 91 % 999,3 hPa 0,0 l/m 0 min 0 min 0,0 UV-I 0 W/m 7,7 km/h (2 Bft)
29.01.2014 07:24 0,1 C -1,1 C 91 % 999,3 hPa 0,0 l/m 0 min 0 min 0,0 UV-I 0 W/m 0,0 km/h (0 Bft)
29.01.2014 07:26 0,1 C -1,1 C 91 % 999,4 hPa 0,0 l/m 0 min 0 min 0,0 UV-I 0 W/m 0,0 km/h (0 Bft)
29.01.2014 07:28 0,1 C -1,1 C 91 % 999,3 hPa 0,0 l/m 0 min 0 min 0,0 UV-I 0 W/m 15,4 km/h (3 Bft)
29.01.2014 07:30 0,1 C -1,1 C 91 % 999,4 hPa 0,0 l/m 0 min 0 min 0,0 UV-I 0 W/m 12,9 km/h (3 Bft)
29.01.2014 07:32 0,1 C -1,1 C 91 % 999,4 hPa 0,0 l/m 0 min 0 min 0,0 UV-I 0 W/m 7,7 km/h (2 Bft)
29.01.2014 07:34 0,2 C -1,1 C 91 % 999,4 hPa 0,0 l/m 0 min 0 min 0,0 UV-I 0 W/m 10,3 km/h (2 Bft)
29.01.2014 07:36 0,2 C -1,1 C 91 % 999,4 hPa 0,0 l/m 0 min 0 min 0,0 UV-I 0 W/m 15,4 km/h (3 Bft)
29.01.2014 07:38 0,2 C -1,1 C 91 % 999,4 hPa 0,0 l/m 0 min 0 min 0,0 UV-I 0 W/m 10,3 km/h (2 Bft)
29.01.2014 07:40 0,2 C -1,1 C 91 % 999,4 hPa 0,0 l/m 0 min 0 min 0,0 UV-I 0 W/m 10,3 km/h (2 Bft)
29.01.2014 07:42 0,1 C -1,1 C 91 % 999,4 hPa 0,0 l/m 0 min 0 min 0,0 UV-I 0 W/m 12,9 km/h (3 Bft)
29.01.2014 07:44 0,1 C -1,1 C 91 % 999,4 hPa 0,0 l/m 0 min 0 min 0,0 UV-I 0 W/m 7,7 km/h (2 Bft)
29.01.2014 07:46 0,1 C -1,1 C 91 % 999,5 hPa 0,0 l/m 0 min 0 min 0,0 UV-I 0 W/m 5,1 km/h (1 Bft)
29.01.2014 07:48 0,1 C -1,1 C 91 % 999,5 hPa 0,0 l/m 0 min 0 min 0,0 UV-I 0 W/m 12,9 km/h (3 Bft)
29.01.2014 07:50 0,1 C -1,7 C 91 % 999,4 hPa 0,0 l/m 0 min 0 min 0,0 UV-I 0 W/m 7,7 km/h (2 Bft)
29.01.2014 07:52 0,0 C -1,7 C 91 % 999,4 hPa 0,0 l/m 0 min 0 min 0,0 UV-I 0 W/m 5,1 km/h (1 Bft)
29.01.2014 07:54 0,0 C -1,7 C 91 % 999,4 hPa 0,0 l/m 0 min 0 min 0,0 UV-I 0 W/m 5,1 km/h (1 Bft)
29.01.2014 07:56 0,0 C -1,7 C 91 % 999,4 hPa 0,0 l/m 0 min 0 min 0,0 UV-I 0 W/m 5,1 km/h (1 Bft)
29.01.2014 07:58 0,0 C -1,7 C 91 % 999,4 hPa 0,0 l/m 0 min 0 min 0,0 UV-I 0 W/m 12,9 km/h (3 Bft)
29.01.2014 08:00 -0,1 C -1,7 C 91 % 999,4 hPa 0,0 l/m 0 min 0 min 0,0 UV-I 0 W/m 10,3 km/h (2 Bft)
29.01.2014 08:02 0,0 C -1,7 C 91 % 999,5 hPa 0,0 l/m 0 min 0 min 0,0 UV-I 0 W/m 7,7 km/h (2 Bft)
29.01.2014 08:04 0,0 C -1,7 C 91 % 999,5 hPa 0,0 l/m 0 min 0 min 0,0 UV-I 0 W/m 12,9 km/h (3 Bft)
29.01.2014 08:06 0,0 C -1,1 C 91 % 999,6 hPa 0,0 l/m 0 min 0 min 0,0 UV-I 0 W/m 10,3 km/h (2 Bft)
29.01.2014 08:08 0,0 C -1,1 C 91 % 999,6 hPa 0,0 l/m 0 min 0 min 0,0 UV-I 0 W/m 7,7 km/h (2 Bft)
29.01.2014 08:10 0,0 C -1,1 C 91 % 999,6 hPa 0,0 l/m 0 min 0 min 0,0 UV-I 0 W/m 2,6 km/h (1 Bft)
29.01.2014 08:12 0,0 C -1,1 C 91 % 999,6 hPa 0,0 l/m 0 min 0 min 0,0 UV-I 0 W/m 5,1 km/h (1 Bft)
29.01.2014 08:14 0,0 C -1,1 C 91 % 999,6 hPa 0,0 l/m 0 min 0 min 0,0 UV-I 5 W/m 0,0 km/h (0 Bft)
29.01.2014 08:16 0,0 C -1,1 C 91 % 999,6 hPa 0,0 l/m 0 min 0 min 0,0 UV-I 5 W/m 10,3 km/h (2 Bft)
29.01.2014 08:18 0,0 C -1,1 C 91 % 999,6 hPa 0,0 l/m 0 min 0 min 0,0 UV-I 5 W/m 7,7 km/h (2 Bft)
29.01.2014 08:20 0,0 C -1,1 C 91 % 999,7 hPa 0,0 l/m 0 min 0 min 0,0 UV-I 5 W/m 7,7 km/h (2 Bft)
29.01.2014 08:22 0,0 C -1,7 C 91 % 999,6 hPa 0,0 l/m 0 min 0 min 0,0 UV-I 7 W/m 2,6 km/h (1 Bft)
29.01.2014 08:24 0,0 C -1,7 C 91 % 999,6 hPa 0,0 l/m 0 min 0 min 0,0 UV-I 7 W/m 10,3 km/h (2 Bft)
29.01.2014 08:26 0,0 C -1,1 C 91 % 999,6 hPa 0,0 l/m 0 min 0 min 0,0 UV-I 9 W/m 12,9 km/h (3 Bft)
29.01.2014 08:28 0,0 C -1,1 C 91 % 999,6 hPa 0,0 l/m 0 min 0 min 0,0 UV-I 9 W/m 12,9 km/h (3 Bft)
29.01.2014 08:30 0,0 C -1,1 C 91 % 999,6 hPa 0,0 l/m 0 min 0 min 0,0 UV-I 11 W/m 12,9 km/h (3 Bft)
29.01.2014 08:32 0,0 C -1,1 C 91 % 999,6 hPa 0,0 l/m 0 min 0 min 0,0 UV-I 11 W/m 5,1 km/h (1 Bft)
29.01.2014 08:34 0,0 C -1,1 C 91 % 999,6 hPa 0,0 l/m 0 min 0 min 0,0 UV-I 12 W/m 5,1 km/h (1 Bft)
29.01.2014 08:36 0,0 C -1,1 C 91 % 999,6 hPa 0,0 l/m 0 min 0 min 0,0 UV-I 12 W/m 10,3 km/h (2 Bft)
29.01.2014 08:38 0,1 C -1,1 C 91 % 999,7 hPa 0,0 l/m 0 min 0 min 0,0 UV-I 14 W/m 5,1 km/h (1 Bft)
29.01.2014 08:40 0,1 C -1,1 C 91 % 999,7 hPa 0,0 l/m 0 min 0 min 0,0 UV-I 16 W/m 10,3 km/h (2 Bft)
29.01.2014 08:42 0,1 C -1,1 C 91 % 999,7 hPa 0,0 l/m 0 min 0 min 0,0 UV-I 16 W/m 7,7 km/h (2 Bft)
29.01.2014 08:44 0,1 C -1,1 C 91 % 999,7 hPa 0,0 l/m 0 min 0 min 0,0 UV-I 14 W/m 18,0 km/h (3 Bft)
29.01.2014 08:46 0,1 C -1,1 C 91 % 999,7 hPa 0,0 l/m 0 min 0 min 0,0 UV-I 18 W/m 10,3 km/h (2 Bft)
29.01.2014 08:48 0,2 C -1,1 C 91 % 999,7 hPa 0,0 l/m 0 min 0 min 0,0 UV-I 19 W/m 10,3 km/h (2 Bft)
29.01.2014 08:50 0,2 C -1,1 C 91 % 999,7 hPa 0,0 l/m 0 min 0 min 0,0 UV-I 21 W/m 10,3 km/h (2 Bft)
29.01.2014 08:52 0,2 C -1,1 C 90 % 999,7 hPa 0,0 l/m 0 min 0 min 0,0 UV-I 21 W/m 20,6 km/h (4 Bft)
29.01.2014 08:54 0,2 C -1,1 C 91 % 999,7 hPa 0,0 l/m 0 min 0 min 0,0 UV-I 23 W/m 12,9 km/h (3 Bft)
29.01.2014 08:56 0,3 C -1,1 C 90 % 999,7 hPa 0,0 l/m 0 min 0 min 0,0 UV-I 21 W/m 10,3 km/h (2 Bft)
29.01.2014 08:58 0,3 C -0,6 C 90 % 999,7 hPa 0,0 l/m 0 min 0 min 0,0 UV-I 26 W/m 7,7 km/h (2 Bft)
29.01.2014 09:00 0,3 C -0,6 C 90 % 999,8 hPa 0,0 l/m 0 min 0 min 0,0 UV-I 28 W/m 0,0 km/h (0 Bft)
29.01.2014 09:02 0,3 C -0,6 C 90 % 999,8 hPa 0,0 l/m 0 min 0 min 0,0 UV-I 26 W/m 18,0 km/h (3 Bft)
29.01.2014 09:04 0,4 C -0,6 C 90 % 999,9 hPa 0,0 l/m 0 min 0 min 0,0 UV-I 35 W/m 7,7 km/h (2 Bft)
29.01.2014 09:06 0,4 C -0,6 C 90 % 999,8 hPa 0,0 l/m 0 min 0 min 0,0 UV-I 33 W/m 7,7 km/h (2 Bft)
29.01.2014 09:08 0,4 C -0,6 C 90 % 999,9 hPa 0,0 l/m 0 min 0 min 0,0 UV-I 37 W/m 12,9 km/h (3 Bft)
29.01.2014 09:10 0,5 C -0,6 C 90 % 999,8 hPa 0,0 l/m 0 min 0 min 0,0 UV-I 39 W/m 12,9 km/h (3 Bft)
29.01.2014 09:12 0,5 C -0,6 C 89 % 999,8 hPa 0,0 l/m 0 min 0 min 0,0 UV-I 47 W/m 12,9 km/h (3 Bft)
29.01.2014 09:14 0,5 C -0,6 C 89 % 999,8 hPa 0,0 l/m 0 min 0 min 0,0 UV-I 40 W/m 7,7 km/h (2 Bft)
29.01.2014 09:16 0,5 C -0,6 C 89 % 999,8 hPa 0,0 l/m 0 min 0 min 0,0 UV-I 46 W/m 18,0 km/h (3 Bft)
29.01.2014 09:18 0,5 C -0,6 C 89 % 999,8 hPa 0,0 l/m 0 min 0 min 0,0 UV-I 47 W/m 10,3 km/h (2 Bft)
29.01.2014 09:20 0,5 C -0,6 C 89 % 999,8 hPa 0,0 l/m 0 min 0 min 0,0 UV-I 47 W/m 18,0 km/h (3 Bft)
29.01.2014 09:22 0,6 C -0,6 C 89 % 999,8 hPa 0,0 l/m 0 min 0 min 0,0 UV-I 49 W/m 10,3 km/h (2 Bft)
29.01.2014 09:24 0,6 C 0,0 C 89 % 999,8 hPa 0,0 l/m 0 min 0 min 0,0 UV-I 53 W/m 12,9 km/h (3 Bft)
29.01.2014 09:26 0,6 C 0,0 C 88 % 999,8 hPa 0,0 l/m 0 min 0 min 0,0 UV-I 51 W/m 18,0 km/h (3 Bft)
29.01.2014 09:28 0,7 C 0,0 C 89 % 999,8 hPa 0,0 l/m 0 min 0 min 0,0 UV-I 49 W/m 12,9 km/h (3 Bft)
29.01.2014 09:30 0,7 C 0,0 C 88 % 999,9 hPa 0,0 l/m 0 min 0 min 0,0 UV-I 54 W/m 20,6 km/h (4 Bft)
29.01.2014 09:32 0,7 C 0,0 C 88 % 999,9 hPa 0,0 l/m 0 min 0 min 0,0 UV-I 54 W/m 20,6 km/h (4 Bft)
29.01.2014 09:34 0,8 C 0,0 C 88 % 999,9 hPa 0,0 l/m 0 min 0 min 0,0 UV-I 60 W/m 18,0 km/h (3 Bft)
29.01.2014 09:36 0,8 C 0,0 C 88 % 1000,0 hPa 0,0 l/m 0 min 0 min 0,0 UV-I 62 W/m 18,0 km/h (3 Bft)
29.01.2014 09:38 0,8 C 0,0 C 88 % 1000,0 hPa 0,0 l/m 0 min 0 min 0,0 UV-I 60 W/m 18,0 km/h (3 Bft)
29.01.2014 09:40 0,9 C 0,0 C 88 % 1000,0 hPa 0,0 l/m 0 min 0 min 0,0 UV-I 58 W/m 12,9 km/h (3 Bft)
29.01.2014 09:42 0,9 C 0,0 C 87 % 1000,1 hPa 0,0 l/m 0 min 0 min 0,0 UV-I 62 W/m 12,9 km/h (3 Bft)
29.01.2014 09:44 0,9 C 0,0 C 87 % 1000,1 hPa 0,0 l/m 0 min 0 min 0,0 UV-I 53 W/m 18,0 km/h (3 Bft)
29.01.2014 09:46 0,9 C 0,0 C 87 % 1000,1 hPa 0,0 l/m 0 min 0 min 0,0 UV-I 54 W/m 15,4 km/h (3 Bft)
29.01.2014 09:48 0,9 C 0,0 C 87 % 1000,1 hPa 0,0 l/m 0 min 0 min 0,0 UV-I 62 W/m 12,9 km/h (3 Bft)
29.01.2014 09:50 1,0 C 0,0 C 87 % 1000,1 hPa 0,0 l/m 0 min 0 min 0,0 UV-I 65 W/m 20,6 km/h (4 Bft)
29.01.2014 09:52 1,0 C 0,0 C 87 % 1000,2 hPa 0,0 l/m 0 min 0 min 0,0 UV-I 65 W/m 18,0 km/h (3 Bft)
29.01.2014 09:54 1,1 C 0,6 C 87 % 1000,1 hPa 0,0 l/m 0 min 0 min 0,0 UV-I 67 W/m 12,9 km/h (3 Bft)
29.01.2014 09:56 1,1 C 0,6 C 87 % 1000,1 hPa 0,0 l/m 0 min 0 min 0,0 UV-I 67 W/m 10,3 km/h (2 Bft)
29.01.2014 09:58 1,1 C 0,6 C 87 % 1000,2 hPa 0,0 l/m 0 min 0 min 0,0 UV-I 76 W/m 18,0 km/h (3 Bft)
29.01.2014 10:00 1,1 C 0,6 C 86 % 1000,2 hPa 0,0 l/m 0 min 0 min 0,0 UV-I 79 W/m 12,9 km/h (3 Bft)
29.01.2014 10:02 1,1 C 0,6 C 86 % 1000,2 hPa 0,0 l/m 0 min 0 min 0,0 UV-I 77 W/m 23,2 km/h (4 Bft)
29.01.2014 10:04 1,2 C 0,6 C 87 % 1000,2 hPa 0,0 l/m 0 min 0 min 0,0 UV-I 88 W/m 12,9 km/h (3 Bft)
29.01.2014 10:06 1,2 C 0,6 C 86 % 1000,1 hPa 0,0 l/m 0 min 0 min 0,0 UV-I 93 W/m 7,7 km/h (2 Bft)
29.01.2014 10:08 1,2 C 0,6 C 86 % 1000,1 hPa 0,0 l/m 0 min 0 min 0,0 UV-I 95 W/m 12,9 km/h (3 Bft)
29.01.2014 10:10 1,2 C 0,6 C 86 % 1000,1 hPa 0,0 l/m 2 min 0 min 0,0 UV-I 141 W/m 10,3 km/h (2 Bft)
29.01.2014 10:12 1,3 C 0,6 C 86 % 1000,1 hPa 0,0 l/m 2 min 0 min 0,0 UV-I 128 W/m 12,9 km/h (3 Bft)
29.01.2014 10:14 1,3 C 0,6 C 86 % 1000,1 hPa 0,0 l/m 0 min 0 min 0,0 UV-I 109 W/m 7,7 km/h (2 Bft)
29.01.2014 10:16 1,3 C 0,6 C 86 % 1000,1 hPa 0,0 l/m 0 min 0 min 0,0 UV-I 113 W/m 15,4 km/h (3 Bft)
29.01.2014 10:18 1,4 C 0,6 C 86 % 1000,1 hPa 0,0 l/m 0 min 0 min 0,0 UV-I 118 W/m 12,9 km/h (3 Bft)
29.01.2014 10:20 1,4 C 0,6 C 86 % 1000,1 hPa 0,0 l/m 0 min 0 min 0,0 UV-I 114 W/m 12,9 km/h (3 Bft)
29.01.2014 10:22 1,4 C 0,6 C 86 % 1000,2 hPa 0,0 l/m 0 min 0 min 0,0 UV-I 113 W/m 10,3 km/h (2 Bft)
29.01.2014 10:24 1,5 C 0,6 C 85 % 1000,2 hPa 0,0 l/m 0 min 0 min 0,0 UV-I 128 W/m 15,4 km/h (3 Bft)
29.01.2014 10:26 1,5 C 1,1 C 85 % 1000,2 hPa 0,0 l/m 0 min 0 min 0,0 UV-I 120 W/m 10,3 km/h (2 Bft)
29.01.2014 10:28 1,6 C 1,1 C 85 % 1000,2 hPa 0,0 l/m 0 min 0 min 0,0 UV-I 127 W/m 18,0 km/h (3 Bft)
29.01.2014 10:30 1,6 C 1,1 C 85 % 1000,3 hPa 0,0 l/m 2 min 0 min 0,0 UV-I 142 W/m 20,6 km/h (4 Bft)
29.01.2014 10:32 1,6 C 1,1 C 85 % 1000,3 hPa 0,0 l/m 0 min 0 min 0,0 UV-I 132 W/m 12,9 km/h (3 Bft)
29.01.2014 10:34 1,6 C 1,1 C 85 % 1000,2 hPa 0,0 l/m 0 min 0 min 0,0 UV-I 127 W/m 12,9 km/h (3 Bft)
29.01.2014 10:36 1,7 C 1,1 C 85 % 1000,3 hPa 0,0 l/m 0 min 0 min 0,0 UV-I 141 W/m 20,6 km/h (4 Bft)
29.01.2014 10:38 1,7 C 1,1 C 85 % 1000,3 hPa 0,0 l/m 0 min 0 min 0,0 UV-I 139 W/m 20,6 km/h (4 Bft)
29.01.2014 10:40 1,7 C 1,1 C 85 % 1000,3 hPa 0,0 l/m 0 min 0 min 0,0 UV-I 148 W/m 15,4 km/h (3 Bft)
29.01.2014 10:42 1,8 C 1,1 C 84 % 1000,3 hPa 0,0 l/m 0 min 0 min 0,0 UV-I 146 W/m 10,3 km/h (2 Bft)
29.01.2014 10:44 1,9 C 1,1 C 84 % 1000,3 hPa 0,0 l/m 0 min 0 min 0,0 UV-I 134 W/m 7,7 km/h (2 Bft)
29.01.2014 10:46 1,9 C 1,1 C 84 % 1000,2 hPa 0,0 l/m 2 min 0 min 0,0 UV-I 214 W/m 15,4 km/h (3 Bft)
29.01.2014 10:48 1,9 C 1,1 C 84 % 1000,3 hPa 0,0 l/m 0 min 0 min 0,0 UV-I 141 W/m 15,4 km/h (3 Bft)
29.01.2014 10:50 1,9 C 1,7 C 84 % 1000,3 hPa 0,0 l/m 0 min 0 min 0,0 UV-I 125 W/m 23,2 km/h (4 Bft)
29.01.2014 10:52 1,9 C 1,7 C 84 % 1000,3 hPa 0,0 l/m 0 min 0 min 0,0 UV-I 123 W/m 15,4 km/h (3 Bft)
29.01.2014 10:54 1,9 C 1,7 C 84 % 1000,3 hPa 0,0 l/m 0 min 0 min 0,0 UV-I 125 W/m 12,9 km/h (3 Bft)
29.01.2014 10:56 2,0 C 1,7 C 84 % 1000,3 hPa 0,0 l/m 0 min 0 min 0,0 UV-I 125 W/m 18,0 km/h (3 Bft)
29.01.2014 10:58 2,0 C 1,7 C 84 % 1000,3 hPa 0,0 l/m 0 min 0 min 0,0 UV-I 118 W/m 12,9 km/h (3 Bft)
29.01.2014 11:00 2,0 C 1,7 C 83 % 1000,4 hPa 0,0 l/m 0 min 0 min 0,0 UV-I 111 W/m 18,0 km/h (3 Bft)
29.01.2014 11:02 2,1 C 1,7 C 83 % 1000,4 hPa 0,0 l/m 0 min 0 min 0,0 UV-I 116 W/m 12,9 km/h (3 Bft)
29.01.2014 11:04 2,1 C 1,7 C 83 % 1000,5 hPa 0,0 l/m 0 min 0 min 0,0 UV-I 111 W/m 15,4 km/h (3 Bft)
29.01.2014 11:06 2,1 C 1,7 C 83 % 1000,5 hPa 0,0 l/m 0 min 0 min 0,0 UV-I 118 W/m 10,3 km/h (2 Bft)
29.01.2014 11:08 2,1 C 1,7 C 83 % 1000,5 hPa 0,0 l/m 0 min 0 min 0,0 UV-I 127 W/m 0,0 km/h (0 Bft)
29.01.2014 11:10 2,2 C 1,7 C 83 % 1000,4 hPa 0,0 l/m 0 min 0 min 0,0 UV-I 121 W/m 18,0 km/h (3 Bft)
29.01.2014 11:12 2,2 C 1,7 C 83 % 1000,5 hPa 0,0 l/m 0 min 0 min 0,0 UV-I 121 W/m 12,9 km/h (3 Bft)
29.01.2014 11:14 2,2 C 1,7 C 83 % 1000,5 hPa 0,0 l/m 0 min 0 min 0,0 UV-I 120 W/m 10,3 km/h (2 Bft)
29.01.2014 11:16 2,2 C 1,7 C 82 % 1000,5 hPa 0,0 l/m 0 min 0 min 0,0 UV-I 127 W/m 25,7 km/h (4 Bft)
29.01.2014 11:18 2,2 C 1,7 C 82 % 1000,4 hPa 0,0 l/m 0 min 0 min 0,0 UV-I 142 W/m 20,6 km/h (4 Bft)
29.01.2014 11:20 2,3 C 2,2 C 82 % 1000,5 hPa 0,0 l/m 0 min 0 min 0,0 UV-I 153 W/m 12,9 km/h (3 Bft)
29.01.2014 11:22 2,3 C 2,2 C 82 % 1000,4 hPa 0,0 l/m 0 min 0 min 0,0 UV-I 132 W/m 20,6 km/h (4 Bft)
29.01.2014 11:24 2,4 C 2,2 C 82 % 1000,4 hPa 0,0 l/m 0 min 0 min 0,0 UV-I 139 W/m 2,6 km/h (1 Bft)
29.01.2014 11:26 2,4 C 2,2 C 83 % 1000,4 hPa 0,0 l/m 0 min 0 min 0,0 UV-I 153 W/m 10,3 km/h (2 Bft)
29.01.2014 11:28 2,5 C 2,2 C 83 % 1000,4 hPa 0,0 l/m 0 min 0 min 0,0 UV-I 146 W/m 2,6 km/h (1 Bft)
29.01.2014 11:30 2,5 C 2,2 C 82 % 1000,4 hPa 0,0 l/m 0 min 0 min 0,0 UV-I 153 W/m 15,4 km/h (3 Bft)
29.01.2014 11:32 2,6 C 2,2 C 82 % 1000,5 hPa 0,0 l/m 0 min 0 min 0,0 UV-I 151 W/m 10,3 km/h (2 Bft)
29.01.2014 11:34 2,6 C 2,2 C 82 % 1000,4 hPa 0,0 l/m 0 min 0 min 0,0 UV-I 155 W/m 12,9 km/h (3 Bft)
29.01.2014 11:36 2,5 C 2,2 C 81 % 1000,3 hPa 0,0 l/m 0 min 0 min 0,0 UV-I 162 W/m 18,0 km/h (3 Bft)
29.01.2014 11:38 2,5 C 2,2 C 81 % 1000,3 hPa 0,0 l/m 0 min 0 min 0,0 UV-I 181 W/m 20,6 km/h (4 Bft)
29.01.2014 11:40 2,5 C 2,2 C 82 % 1000,3 hPa 0,0 l/m 2 min 0 min 0,0 UV-I 211 W/m 15,4 km/h (3 Bft)
29.01.2014 11:42 2,6 C 2,8 C 82 % 1000,2 hPa 0,0 l/m 2 min 0 min 0,0 UV-I 227 W/m 10,3 km/h (2 Bft)
29.01.2014 11:44 2,7 C 2,8 C 81 % 1000,2 hPa 0,0 l/m 2 min 0 min 0,0 UV-I 227 W/m 23,2 km/h (4 Bft)
29.01.2014 11:46 2,7 C 2,8 C 81 % 1000,2 hPa 0,0 l/m 2 min 0 min 0,0 UV-I 214 W/m 20,6 km/h (4 Bft)
29.01.2014 11:48 2,9 C 2,8 C 81 % 1000,2 hPa 0,0 l/m 2 min 0 min 0,0 UV-I 294 W/m 15,4 km/h (3 Bft)
29.01.2014 11:50 2,9 C 2,8 C 80 % 1000,1 hPa 0,0 l/m 2 min 0 min 0,0 UV-I 262 W/m 12,9 km/h (3 Bft)
29.01.2014 11:52 3,1 C 2,8 C 80 % 1000,1 hPa 0,0 l/m 2 min 0 min 0,0 UV-I 190 W/m 20,6 km/h (4 Bft)
29.01.2014 11:54 3,1 C 2,8 C 80 % 1000,1 hPa 0,0 l/m 2 min 0 min 0,0 UV-I 218 W/m 15,4 km/h (3 Bft)
29.01.2014 11:56 3,0 C 2,8 C 79 % 1000,1 hPa 0,0 l/m 0 min 0 min 0,0 UV-I 183 W/m 23,2 km/h (4 Bft)
29.01.2014 11:58 3,0 C 2,8 C 79 % 1000,1 hPa 0,0 l/m 2 min 0 min 0,0 UV-I 204 W/m 20,6 km/h (4 Bft)
29.01.2014 12:00 2,9 C 2,8 C 80 % 1000,1 hPa 0,0 l/m 0 min 0 min 0,0 UV-I 176 W/m 10,3 km/h (2 Bft)
29.01.2014 12:02 3,0 C 2,8 C 80 % 1000,0 hPa 0,0 l/m 0 min 0 min 0,0 UV-I 174 W/m 5,1 km/h (1 Bft)
29.01.2014 12:04 3,0 C 2,8 C 80 % 1000,1 hPa 0,0 l/m 0 min 0 min 0,0 UV-I 162 W/m 33,5 km/h (5 Bft)
29.01.2014 12:06 2,9 C 2,2 C 79 % 1000,1 hPa 0,0 l/m 2 min 0 min 0,0 UV-I 285 W/m 25,7 km/h (4 Bft)
29.01.2014 12:08 2,9 C 2,2 C 79 % 1000,1 hPa 0,0 l/m 0 min 0 min 0,0 UV-I 179 W/m 18,0 km/h (3 Bft)
29.01.2014 12:10 2,9 C 2,2 C 79 % 1000,1 hPa 0,0 l/m 0 min 0 min 0,0 UV-I 153 W/m 28,3 km/h (4 Bft)
29.01.2014 12:12 2,9 C 2,2 C 79 % 1000,0 hPa 0,0 l/m 0 min 0 min 0,0 UV-I 163 W/m 23,2 km/h (4 Bft)
29.01.2014 12:14 2,9 C 2,2 C 79 % 1000,0 hPa 0,0 l/m 2 min 0 min 0,0 UV-I 267 W/m 15,4 km/h (3 Bft)
29.01.2014 12:16 2,9 C 2,2 C 79 % 1000,1 hPa 0,0 l/m 2 min 0 min 0,0 UV-I 214 W/m 20,6 km/h (4 Bft)
29.01.2014 12:18 2,9 C 2,2 C 79 % 1000,0 hPa 0,0 l/m 2 min 0 min 0,0 UV-I 294 W/m 15,4 km/h (3 Bft)
29.01.2014 12:20 3,0 C 2,2 C 79 % 1000,0 hPa 0,0 l/m 2 min 0 min 0,0 UV-I 271 W/m 10,3 km/h (2 Bft)
29.01.2014 12:22 3,2 C 2,2 C 79 % 1000,0 hPa 0,0 l/m 2 min 0 min 0,0 UV-I 287 W/m 12,9 km/h (3 Bft)
29.01.2014 12:24 3,3 C 2,2 C 79 % 1000,1 hPa 0,0 l/m 2 min 0 min 0,0 UV-I 281 W/m 23,2 km/h (4 Bft)
29.01.2014 12:26 3,3 C 2,2 C 78 % 1000,0 hPa 0,0 l/m 2 min 0 min 0,0 UV-I 276 W/m 20,6 km/h (4 Bft)
29.01.2014 12:28 3,3 C 2,2 C 77 % 999,9 hPa 0,0 l/m 2 min 0 min 0,0 UV-I 281 W/m 18,0 km/h (3 Bft)
29.01.2014 12:30 3,3 C 2,2 C 77 % 999,9 hPa 0,0 l/m 2 min 0 min 0,0 UV-I 267 W/m 25,7 km/h (4 Bft)
29.01.2014 12:32 3,3 C 2,2 C 77 % 999,9 hPa 0,0 l/m 2 min 0 min 0,0 UV-I 287 W/m 25,7 km/h (4 Bft)
29.01.2014 12:34 3,3 C 2,2 C 77 % 999,9 hPa 0,0 l/m 2 min 0 min 0,0 UV-I 281 W/m 18,0 km/h (3 Bft)
29.01.2014 12:36 3,4 C 2,2 C 77 % 1000,0 hPa 0,0 l/m 2 min 0 min 0,0 UV-I 285 W/m 18,0 km/h (3 Bft)
29.01.2014 12:38 3,4 C 2,8 C 77 % 999,9 hPa 0,0 l/m 2 min 0 min 0,0 UV-I 294 W/m 12,9 km/h (3 Bft)
29.01.2014 12:40 3,6 C 2,8 C 77 % 1000,0 hPa 0,0 l/m 0 min 0 min 0,0 UV-I 188 W/m 20,6 km/h (4 Bft)
29.01.2014 12:42 3,6 C 2,8 C 77 % 1000,1 hPa 0,0 l/m 2 min 0 min 0,0 UV-I 274 W/m 18,0 km/h (3 Bft)
29.01.2014 12:44 3,6 C 2,8 C 77 % 1000,0 hPa 0,0 l/m 2 min 0 min 0,0 UV-I 290 W/m 18,0 km/h (3 Bft)
29.01.2014 12:46 3,6 C 2,8 C 77 % 1000,0 hPa 0,0 l/m 2 min 0 min 0,0 UV-I 276 W/m 25,7 km/h (4 Bft)
29.01.2014 12:48 3,6 C 2,8 C 77 % 999,9 hPa 0,0 l/m 2 min 0 min 0,0 UV-I 279 W/m 18,0 km/h (3 Bft)
29.01.2014 12:50 3,7 C 2,8 C 76 % 999,9 hPa 0,0 l/m 2 min 0 min 0,0 UV-I 292 W/m 20,6 km/h (4 Bft)
29.01.2014 12:52 3,7 C 2,8 C 76 % 999,9 hPa 0,0 l/m 2 min 0 min 0,0 UV-I 290 W/m 30,9 km/h (5 Bft)
29.01.2014 12:54 3,7 C 2,8 C 76 % 999,9 hPa 0,0 l/m 2 min 0 min 0,0 UV-I 290 W/m 18,0 km/h (3 Bft)
29.01.2014 12:56 3,7 C 2,8 C 76 % 999,9 hPa 0,0 l/m 2 min 0 min 0,0 UV-I 299 W/m 12,9 km/h (3 Bft)
29.01.2014 12:58 3,8 C 2,8 C 76 % 999,9 hPa 0,0 l/m 2 min 0 min 0,0 UV-I 297 W/m 18,0 km/h (3 Bft)
29.01.2014 13:00 3,9 C 2,8 C 76 % 999,8 hPa 0,0 l/m 2 min 0 min 0,0 UV-I 237 W/m 18,0 km/h (3 Bft)
29.01.2014 13:02 3,9 C 2,8 C 76 % 999,8 hPa 0,0 l/m 2 min 0 min 0,0 UV-I 295 W/m 20,6 km/h (4 Bft)
29.01.2014 13:04 3,9 C 2,8 C 75 % 999,7 hPa 0,0 l/m 2 min 0 min 0,0 UV-I 281 W/m 23,2 km/h (4 Bft)
29.01.2014 13:06 4,0 C 2,8 C 75 % 999,9 hPa 0,0 l/m 2 min 0 min 0,0 UV-I 283 W/m 15,4 km/h (3 Bft)
29.01.2014 13:08 4,0 C 2,8 C 75 % 999,9 hPa 0,0 l/m 2 min 0 min 0,0 UV-I 283 W/m 18,0 km/h (3 Bft)
29.01.2014 13:10 4,1 C 2,8 C 75 % 999,9 hPa 0,0 l/m 2 min 0 min 0,0 UV-I 297 W/m 18,0 km/h (3 Bft)
29.01.2014 13:12 4,1 C 3,3 C 75 % 999,8 hPa 0,0 l/m 2 min 0 min 0,0 UV-I 294 W/m 15,4 km/h (3 Bft)
29.01.2014 13:14 4,2 C 3,3 C 75 % 999,9 hPa 0,0 l/m 2 min 0 min 0,0 UV-I 297 W/m 7,7 km/h (2 Bft)
29.01.2014 13:16 4,3 C 3,3 C 75 % 999,7 hPa 0,0 l/m 2 min 0 min 0,0 UV-I 311 W/m 10,3 km/h (2 Bft)
29.01.2014 13:18 4,3 C 3,3 C 74 % 999,8 hPa 0,0 l/m 2 min 0 min 0,0 UV-I 309 W/m 33,5 km/h (5 Bft)
29.01.2014 13:20 4,3 C 3,3 C 74 % 999,8 hPa 0,0 l/m 2 min 0 min 0,0 UV-I 302 W/m 23,2 km/h (4 Bft)
29.01.2014 13:22 4,3 C 3,3 C 74 % 999,8 hPa 0,0 l/m 2 min 0 min 0,0 UV-I 294 W/m 20,6 km/h (4 Bft)
29.01.2014 13:24 4,3 C 3,3 C 74 % 999,7 hPa 0,0 l/m 2 min 0 min 0,0 UV-I 294 W/m 18,0 km/h (3 Bft)
29.01.2014 13:26 4,3 C 3,3 C 74 % 999,7 hPa 0,0 l/m 2 min 0 min 0,0 UV-I 299 W/m 15,4 km/h (3 Bft)
29.01.2014 13:28 4,3 C 3,3 C 74 % 999,7 hPa 0,0 l/m 2 min 0 min 0,0 UV-I 301 W/m 20,6 km/h (4 Bft)
29.01.2014 13:30 4,4 C 3,3 C 74 % 999,8 hPa 0,0 l/m 2 min 0 min 0,0 UV-I 295 W/m 18,0 km/h (3 Bft)
29.01.2014 13:32 4,4 C 3,3 C 74 % 999,6 hPa 0,0 l/m 2 min 0 min 0,0 UV-I 290 W/m 10,3 km/h (2 Bft)
29.01.2014 13:34 4,5 C 3,3 C 74 % 999,6 hPa 0,0 l/m 2 min 0 min 0,0 UV-I 285 W/m 10,3 km/h (2 Bft)
29.01.2014 13:36 4,5 C 3,3 C 73 % 999,6 hPa 0,0 l/m 2 min 0 min 0,0 UV-I 283 W/m 28,3 km/h (4 Bft)
29.01.2014 13:38 4,5 C 3,3 C 73 % 999,6 hPa 0,0 l/m 2 min 0 min 0,0 UV-I 278 W/m 15,4 km/h (3 Bft)
29.01.2014 13:40 4,5 C 3,3 C 73 % 999,6 hPa 0,0 l/m 2 min 0 min 0,0 UV-I 274 W/m 15,4 km/h (3 Bft)
29.01.2014 13:42 4,5 C 3,3 C 73 % 999,7 hPa 0,0 l/m 2 min 0 min 0,0 UV-I 272 W/m 10,3 km/h (2 Bft)
29.01.2014 13:44 4,6 C 3,3 C 73 % 999,6 hPa 0,0 l/m 2 min 0 min 0,0 UV-I 267 W/m 10,3 km/h (2 Bft)
29.01.2014 13:46 4,6 C 3,3 C 73 % 999,6 hPa 0,0 l/m 2 min 0 min 0,0 UV-I 262 W/m 20,6 km/h (4 Bft)
29.01.2014 13:48 4,6 C 3,3 C 72 % 999,6 hPa 0,0 l/m 2 min 0 min 0,0 UV-I 274 W/m 23,2 km/h (4 Bft)
29.01.2014 13:50 4,5 C 3,3 C 72 % 999,5 hPa 0,0 l/m 2 min 0 min 0,0 UV-I 276 W/m 15,4 km/h (3 Bft)
29.01.2014 13:52 4,5 C 3,3 C 72 % 999,6 hPa 0,0 l/m 2 min 0 min 0,0 UV-I 274 W/m 12,9 km/h (3 Bft)
29.01.2014 13:54 4,5 C 3,3 C 72 % 999,5 hPa 0,0 l/m 2 min 0 min 0,0 UV-I 269 W/m 15,4 km/h (3 Bft)
29.01.2014 13:56 4,6 C 3,3 C 73 % 999,5 hPa 0,0 l/m 2 min 0 min 0,0 UV-I 265 W/m 20,6 km/h (4 Bft)
29.01.2014 13:58 4,7 C 3,3 C 72 % 999,6 hPa 0,0 l/m 2 min 0 min 0,0 UV-I 272 W/m 15,4 km/h (3 Bft)
29.01.2014 14:00 4,7 C 3,3 C 73 % 999,6 hPa 0,0 l/m 2 min 0 min 0,0 UV-I 269 W/m 15,4 km/h (3 Bft)
29.01.2014 14:02 4,7 C 3,3 C 72 % 999,6 hPa 0,0 l/m 2 min 0 min 0,0 UV-I 267 W/m 23,2 km/h (4 Bft)
29.01.2014 14:04 4,7 C 3,3 C 72 % 999,6 hPa 0,0 l/m 2 min 0 min 0,0 UV-I 262 W/m 25,7 km/h (4 Bft)
29.01.2014 14:06 4,7 C 3,3 C 72 % 999,5 hPa 0,0 l/m 2 min 0 min 0,0 UV-I 260 W/m 12,9 km/h (3 Bft)
29.01.2014 14:08 4,6 C 3,3 C 72 % 999,5 hPa 0,0 l/m 2 min 0 min 0,0 UV-I 255 W/m 33,5 km/h (5 Bft)
29.01.2014 14:10 4,6 C 3,3 C 72 % 999,5 hPa 0,0 l/m 2 min 0 min 0,0 UV-I 251 W/m 12,9 km/h (3 Bft)
29.01.2014 14:12 4,6 C 3,3 C 72 % 999,4 hPa 0,0 l/m 2 min 0 min 0,0 UV-I 250 W/m 12,9 km/h (3 Bft)
29.01.2014 14:14 4,7 C 3,3 C 72 % 999,4 hPa 0,0 l/m 2 min 0 min 0,0 UV-I 246 W/m 15,4 km/h (3 Bft)
29.01.2014 14:16 4,7 C 3,3 C 72 % 999,4 hPa 0,0 l/m 2 min 0 min 0,0 UV-I 246 W/m 12,9 km/h (3 Bft)
29.01.2014 14:18 4,8 C 3,3 C 72 % 999,4 hPa 0,0 l/m 2 min 0 min 0,0 UV-I 241 W/m 15,4 km/h (3 Bft)
29.01.2014 14:20 4,8 C 3,3 C 71 % 999,4 hPa 0,0 l/m 2 min 0 min 0,0 UV-I 244 W/m 18,0 km/h (3 Bft)
29.01.2014 14:22 4,8 C 3,3 C 71 % 999,4 hPa 0,0 l/m 2 min 0 min 0,0 UV-I 248 W/m 7,7 km/h (2 Bft)
29.01.2014 14:24 4,8 C 3,3 C 72 % 999,3 hPa 0,0 l/m 2 min 0 min 0,0 UV-I 246 W/m 20,6 km/h (4 Bft)
29.01.2014 14:26 4,9 C 3,9 C 72 % 999,3 hPa 0,0 l/m 2 min 0 min 0,0 UV-I 251 W/m 7,7 km/h (2 Bft)
29.01.2014 14:28 4,9 C 3,9 C 75 % 999,3 hPa 0,0 l/m 2 min 0 min 0,0 UV-I 253 W/m 18,0 km/h (3 Bft)
29.01.2014 14:30 5,0 C 3,9 C 71 % 999,3 hPa 0,0 l/m 2 min 0 min 0,0 UV-I 248 W/m 18,0 km/h (3 Bft)
29.01.2014 14:32 5,0 C 3,9 C 71 % 999,3 hPa 0,0 l/m 2 min 0 min 0,0 UV-I 246 W/m 12,9 km/h (3 Bft)
29.01.2014 14:34 5,1 C 3,9 C 71 % 999,3 hPa 0,0 l/m 2 min 0 min 0,0 UV-I 244 W/m 18,0 km/h (3 Bft)
29.01.2014 14:36 5,1 C 3,9 C 70 % 999,3 hPa 0,0 l/m 2 min 0 min 0,0 UV-I 243 W/m 23,2 km/h (4 Bft)
29.01.2014 14:38 5,1 C 3,9 C 71 % 999,3 hPa 0,0 l/m 2 min 0 min 0,0 UV-I 241 W/m 20,6 km/h (4 Bft)
29.01.2014 14:40 5,0 C 3,9 C 71 % 999,3 hPa 0,0 l/m 2 min 0 min 0,0 UV-I 232 W/m 18,0 km/h (3 Bft)
29.01.2014 14:42 5,0 C 3,9 C 71 % 999,3 hPa 0,0 l/m 2 min 0 min 0,0 UV-I 225 W/m 15,4 km/h (3 Bft)
29.01.2014 14:44 5,0 C 3,9 C 71 % 999,3 hPa 0,0 l/m 2 min 0 min 0,0 UV-I 204 W/m 10,3 km/h (2 Bft)
29.01.2014 14:46 5,0 C 3,9 C 71 % 999,4 hPa 0,0 l/m 2 min 0 min 0,0 UV-I 209 W/m 28,3 km/h (4 Bft)
29.01.2014 14:48 5,0 C 3,9 C 70 % 999,3 hPa 0,0 l/m 2 min 0 min 0,0 UV-I 204 W/m 28,3 km/h (4 Bft)
29.01.2014 14:50 4,9 C 3,9 C 71 % 999,3 hPa 0,0 l/m 2 min 0 min 0,0 UV-I 202 W/m 20,6 km/h (4 Bft)
29.01.2014 14:52 4,9 C 3,3 C 70 % 999,3 hPa 0,0 l/m 2 min 0 min 0,0 UV-I 195 W/m 12,9 km/h (3 Bft)
29.01.2014 14:54 4,9 C 3,3 C 71 % 999,3 hPa 0,0 l/m 2 min 0 min 0,0 UV-I 193 W/m 15,4 km/h (3 Bft)
29.01.2014 14:56 4,9 C 3,3 C 71 % 999,3 hPa 0,0 l/m 2 min 0 min 0,0 UV-I 193 W/m 7,7 km/h (2 Bft)
29.01.2014 14:58 4,9 C 3,3 C 71 % 999,3 hPa 0,0 l/m 2 min 0 min 0,0 UV-I 185 W/m 18,0 km/h (3 Bft)
29.01.2014 15:00 4,9 C 3,3 C 70 % 999,3 hPa 0,0 l/m 2 min 0 min 0,0 UV-I 192 W/m 20,6 km/h (4 Bft)
29.01.2014 15:02 4,9 C 3,3 C 70 % 999,4 hPa 0,0 l/m 2 min 0 min 0,0 UV-I 186 W/m 23,2 km/h (4 Bft)
29.01.2014 15:04 4,9 C 3,3 C 70 % 999,4 hPa 0,0 l/m 2 min 0 min 0,0 UV-I 186 W/m 12,9 km/h (3 Bft)
29.01.2014 15:06 4,9 C 3,3 C 70 % 999,3 hPa 0,0 l/m 2 min 0 min 0,0 UV-I 185 W/m 15,4 km/h (3 Bft)
29.01.2014 15:08 4,9 C 3,3 C 70 % 999,3 hPa 0,0 l/m 2 min 0 min 0,0 UV-I 183 W/m 23,2 km/h (4 Bft)
29.01.2014 15:10 4,8 C 3,3 C 71 % 999,3 hPa 0,0 l/m 2 min 0 min 0,0 UV-I 181 W/m 10,3 km/h (2 Bft)
29.01.2014 15:12 4,8 C 3,3 C 71 % 999,4 hPa 0,0 l/m 2 min 0 min 0,0 UV-I 179 W/m 15,4 km/h (3 Bft)
29.01.2014 15:14 4,8 C 3,3 C 71 % 999,4 hPa 0,0 l/m 2 min 0 min 0,0 UV-I 174 W/m 20,6 km/h (4 Bft)
29.01.2014 15:16 4,8 C 3,3 C 70 % 999,4 hPa 0,0 l/m 2 min 0 min 0,0 UV-I 171 W/m 20,6 km/h (4 Bft)
29.01.2014 15:18 4,8 C 3,3 C 71 % 999,4 hPa 0,0 l/m 2 min 0 min 0,0 UV-I 160 W/m 12,9 km/h (3 Bft)
29.01.2014 15:20 4,8 C 3,3 C 71 % 999,4 hPa 0,0 l/m 2 min 0 min 0,0 UV-I 153 W/m 20,6 km/h (4 Bft)
29.01.2014 15:22 4,8 C 3,3 C 71 % 999,4 hPa 0,0 l/m 2 min 0 min 0,0 UV-I 151 W/m 15,4 km/h (3 Bft)
29.01.2014 15:24 4,8 C 3,3 C 71 % 999,4 hPa 0,0 l/m 2 min 0 min 0,0 UV-I 162 W/m 18,0 km/h (3 Bft)
29.01.2014 15:26 4,8 C 3,3 C 70 % 999,3 hPa 0,0 l/m 2 min 0 min 0,0 UV-I 162 W/m 18,0 km/h (3 Bft)
29.01.2014 15:28 4,8 C 3,3 C 71 % 999,4 hPa 0,0 l/m 2 min 0 min 0,0 UV-I 163 W/m 12,9 km/h (3 Bft)
29.01.2014 15:30 4,8 C 3,3 C 71 % 999,4 hPa 0,0 l/m 2 min 0 min 0,0 UV-I 156 W/m 12,9 km/h (3 Bft)
29.01.2014 15:32 4,8 C 3,3 C 71 % 999,3 hPa 0,0 l/m 2 min 0 min 0,0 UV-I 156 W/m 20,6 km/h (4 Bft)
29.01.2014 15:34 4,7 C 3,3 C 71 % 999,4 hPa 0,0 l/m 2 min 0 min 0,0 UV-I 155 W/m 23,2 km/h (4 Bft)
29.01.2014 15:36 4,7 C 3,3 C 70 % 999,4 hPa 0,0 l/m 2 min 0 min 0,0 UV-I 148 W/m 20,6 km/h (4 Bft)
29.01.2014 15:38 4,7 C 3,3 C 70 % 999,4 hPa 0,0 l/m 2 min 0 min 0,0 UV-I 146 W/m 18,0 km/h (3 Bft)
29.01.2014 15:40 4,7 C 3,3 C 71 % 999,4 hPa 0,0 l/m 2 min 0 min 0,0 UV-I 141 W/m 12,9 km/h (3 Bft)
29.01.2014 15:42 4,7 C 3,3 C 71 % 999,4 hPa 0,0 l/m 2 min 0 min 0,0 UV-I 128 W/m 18,0 km/h (3 Bft)
29.01.2014 15:44 4,7 C 3,3 C 71 % 999,4 hPa 0,0 l/m 2 min 0 min 0,0 UV-I 123 W/m 18,0 km/h (3 Bft)
29.01.2014 15:46 4,7 C 3,3 C 71 % 999,5 hPa 0,0 l/m 2 min 0 min 0,0 UV-I 123 W/m 10,3 km/h (2 Bft)
29.01.2014 15:48 4,7 C 3,3 C 70 % 999,5 hPa 0,0 l/m 2 min 0 min 0,0 UV-I 107 W/m 12,9 km/h (3 Bft)
29.01.2014 15:50 4,7 C 3,3 C 70 % 999,5 hPa 0,0 l/m 2 min 0 min 0,0 UV-I 100 W/m 15,4 km/h (3 Bft)
29.01.2014 15:52 4,6 C 2,8 C 70 % 999,5 hPa 0,0 l/m 0 min 0 min 0,0 UV-I 97 W/m 20,6 km/h (4 Bft)
29.01.2014 15:54 4,6 C 3,3 C 71 % 999,5 hPa 0,0 l/m 0 min 0 min 0,0 UV-I 93 W/m 18,0 km/h (3 Bft)
29.01.2014 15:56 4,6 C 3,3 C 71 % 999,5 hPa 0,0 l/m 0 min 0 min 0,0 UV-I 90 W/m 12,9 km/h (3 Bft)
29.01.2014 15:58 4,6 C 3,3 C 71 % 999,5 hPa 0,0 l/m 0 min 0 min 0,0 UV-I 81 W/m 10,3 km/h (2 Bft)
29.01.2014 16:00 4,6 C 2,8 C 71 % 999,5 hPa 0,0 l/m 0 min 0 min 0,0 UV-I 62 W/m 12,9 km/h (3 Bft)
29.01.2014 16:02 4,6 C 2,8 C 71 % 999,5 hPa 0,0 l/m 0 min 0 min 0,0 UV-I 54 W/m 12,9 km/h (3 Bft)
29.01.2014 16:04 4,5 C 2,8 C 71 % 999,5 hPa 0,0 l/m 0 min 0 min 0,0 UV-I 51 W/m 18,0 km/h (3 Bft)
29.01.2014 16:06 4,4 C 2,8 C 71 % 999,5 hPa 0,0 l/m 0 min 0 min 0,0 UV-I 47 W/m 7,7 km/h (2 Bft)
29.01.2014 16:08 4,4 C 2,8 C 71 % 999,5 hPa 0,0 l/m 0 min 0 min 0,0 UV-I 46 W/m 7,7 km/h (2 Bft)
29.01.2014 16:10 4,4 C 2,8 C 72 % 999,6 hPa 0,0 l/m 0 min 0 min 0,0 UV-I 44 W/m 7,7 km/h (2 Bft)
29.01.2014 16:12 4,4 C 2,8 C 72 % 999,6 hPa 0,0 l/m 0 min 0 min 0,0 UV-I 42 W/m 15,4 km/h (3 Bft)
29.01.2014 16:14 4,3 C 2,8 C 72 % 999,6 hPa 0,0 l/m 0 min 0 min 0,0 UV-I 42 W/m 12,9 km/h (3 Bft)
29.01.2014 16:16 4,3 C 2,8 C 72 % 999,6 hPa 0,0 l/m 0 min 0 min 0,0 UV-I 40 W/m 10,3 km/h (2 Bft)
29.01.2014 16:18 4,3 C 2,8 C 72 % 999,7 hPa 0,0 l/m 0 min 0 min 0,0 UV-I 40 W/m 10,3 km/h (2 Bft)
29.01.2014 16:20 4,2 C 2,8 C 72 % 999,6 hPa 0,0 l/m 0 min 0 min 0,0 UV-I 40 W/m 18,0 km/h (3 Bft)
29.01.2014 16:22 4,2 C 2,8 C 72 % 999,6 hPa 0,0 l/m 0 min 0 min 0,0 UV-I 39 W/m 18,0 km/h (3 Bft)
29.01.2014 16:24 4,2 C 2,8 C 72 % 999,6 hPa 0,0 l/m 0 min 0 min 0,0 UV-I 37 W/m 5,1 km/h (1 Bft)
29.01.2014 16:26 4,2 C 2,8 C 72 % 999,6 hPa 0,0 l/m 0 min 0 min 0,0 UV-I 37 W/m 5,1 km/h (1 Bft)
29.01.2014 16:28 4,2 C 2,8 C 72 % 999,7 hPa 0,0 l/m 0 min 0 min 0,0 UV-I 35 W/m 7,7 km/h (2 Bft)
29.01.2014 16:30 4,2 C 2,2 C 73 % 999,7 hPa 0,0 l/m 0 min 0 min 0,0 UV-I 32 W/m 5,1 km/h (1 Bft)
29.01.2014 16:32 4,2 C 2,2 C 73 % 999,7 hPa 0,0 l/m 0 min 0 min 0,0 UV-I 32 W/m 15,4 km/h (3 Bft)
29.01.2014 16:34 4,1 C 2,2 C 73 % 999,7 hPa 0,0 l/m 0 min 0 min 0,0 UV-I 30 W/m 5,1 km/h (1 Bft)
29.01.2014 16:36 4,1 C 2,2 C 74 % 999,7 hPa 0,0 l/m 0 min 0 min 0,0 UV-I 28 W/m 0,0 km/h (0 Bft)
29.01.2014 16:38 4,0 C 2,2 C 74 % 999,8 hPa 0,0 l/m 0 min 0 min 0,0 UV-I 26 W/m 7,7 km/h (2 Bft)
29.01.2014 16:40 3,9 C 2,2 C 75 % 999,7 hPa 0,0 l/m 0 min 0 min 0,0 UV-I 26 W/m 5,1 km/h (1 Bft)
29.01.2014 16:42 3,9 C 2,2 C 75 % 999,8 hPa 0,0 l/m 0 min 0 min 0,0 UV-I 25 W/m 7,7 km/h (2 Bft)
29.01.2014 16:44 3,8 C 2,2 C 75 % 999,8 hPa 0,0 l/m 0 min 0 min 0,0 UV-I 23 W/m 2,6 km/h (1 Bft)
29.01.2014 16:46 3,8 C 2,2 C 75 % 999,8 hPa 0,0 l/m 0 min 0 min 0,0 UV-I 23 W/m 12,9 km/h (3 Bft)
29.01.2014 16:48 3,8 C 1,7 C 75 % 999,8 hPa 0,0 l/m 0 min 0 min 0,0 UV-I 21 W/m 12,9 km/h (3 Bft)
29.01.2014 16:50 3,7 C 1,7 C 75 % 999,8 hPa 0,0 l/m 0 min 0 min 0,0 UV-I 21 W/m 12,9 km/h (3 Bft)
29.01.2014 16:52 3,7 C 1,7 C 75 % 999,8 hPa 0,0 l/m 0 min 0 min 0,0 UV-I 19 W/m 7,7 km/h (2 Bft)
29.01.2014 16:54 3,7 C 1,7 C 74 % 999,8 hPa 0,0 l/m 0 min 0 min 0,0 UV-I 18 W/m 0,0 km/h (0 Bft)
29.01.2014 16:56 3,6 C 1,7 C 75 % 999,8 hPa 0,0 l/m 0 min 0 min 0,0 UV-I 18 W/m 5,1 km/h (1 Bft)
29.01.2014 16:58 3,6 C 1,7 C 75 % 999,9 hPa 0,0 l/m 0 min 0 min 0,0 UV-I 16 W/m 10,3 km/h (2 Bft)
29.01.2014 17:00 3,6 C 1,7 C 75 % 999,9 hPa 0,0 l/m 0 min 0 min 0,0 UV-I 16 W/m 5,1 km/h (1 Bft)
29.01.2014 17:02 3,6 C 1,7 C 75 % 1000,0 hPa 0,0 l/m 0 min 0 min 0,0 UV-I 16 W/m 10,3 km/h (2 Bft)
29.01.2014 17:04 3,5 C 1,7 C 75 % 1000,1 hPa 0,0 l/m 0 min 0 min 0,0 UV-I 14 W/m 0,0 km/h (0 Bft)
29.01.2014 17:06 3,4 C 1,7 C 75 % 1000,2 hPa 0,0 l/m 0 min 0 min 0,0 UV-I 14 W/m 5,1 km/h (1 Bft)
29.01.2014 17:08 3,4 C 1,1 C 76 % 1000,3 hPa 0,0 l/m 0 min 0 min 0,0 UV-I 12 W/m 2,6 km/h (1 Bft)
29.01.2014 17:10 3,3 C 1,1 C 76 % 1000,3 hPa 0,0 l/m 0 min 0 min 0,0 UV-I 9 W/m 2,6 km/h (1 Bft)
29.01.2014 17:12 3,2 C 1,1 C 76 % 1000,4 hPa 0,0 l/m 0 min 0 min 0,0 UV-I 9 W/m 10,3 km/h (2 Bft)
29.01.2014 17:14 3,2 C 1,1 C 76 % 1000,3 hPa 0,0 l/m 0 min 0 min 0,0 UV-I 7 W/m 5,1 km/h (1 Bft)
29.01.2014 17:16 3,1 C 1,1 C 76 % 1000,4 hPa 0,0 l/m 0 min 0 min 0,0 UV-I 7 W/m 12,9 km/h (3 Bft)
29.01.2014 17:18 3,1 C 1,1 C 77 % 1000,4 hPa 0,0 l/m 0 min 0 min 0,0 UV-I 5 W/m 7,7 km/h (2 Bft)
29.01.2014 17:20 3,0 C 1,1 C 77 % 1000,5 hPa 0,0 l/m 0 min 0 min 0,0 UV-I 5 W/m 7,7 km/h (2 Bft)
29.01.2014 17:22 3,0 C 1,1 C 77 % 1000,4 hPa 0,0 l/m 0 min 0 min 0,0 UV-I 5 W/m 10,3 km/h (2 Bft)
29.01.2014 17:24 2,9 C 1,1 C 77 % 1000,5 hPa 0,0 l/m 0 min 0 min 0,0 UV-I 0 W/m 5,1 km/h (1 Bft)
29.01.2014 17:26 2,9 C 1,1 C 77 % 1000,4 hPa 0,0 l/m 0 min 0 min 0,0 UV-I 0 W/m 0,0 km/h (0 Bft)
29.01.2014 17:28 2,9 C 1,1 C 77 % 1000,4 hPa 0,0 l/m 0 min 0 min 0,0 UV-I 0 W/m 7,7 km/h (2 Bft)
29.01.2014 17:30 2,8 C 1,1 C 77 % 1000,6 hPa 0,0 l/m 0 min 0 min 0,0 UV-I 0 W/m 5,1 km/h (1 Bft)
29.01.2014 17:32 2,8 C 1,1 C 77 % 1000,5 hPa 0,0 l/m 0 min 0 min 0,0 UV-I 0 W/m 12,9 km/h (3 Bft)
29.01.2014 17:34 2,8 C 1,1 C 77 % 1000,5 hPa 0,0 l/m 0 min 0 min 0,0 UV-I 0 W/m 10,3 km/h (2 Bft)
29.01.2014 17:36 2,8 C 1,1 C 77 % 1000,5 hPa 0,0 l/m 0 min 0 min 0,0 UV-I 0 W/m 7,7 km/h (2 Bft)
29.01.2014 17:38 2,7 C 1,1 C 77 % 1000,5 hPa 0,0 l/m 0 min 0 min 0,0 UV-I 0 W/m 12,9 km/h (3 Bft)
29.01.2014 17:40 2,7 C 0,6 C 78 % 1000,6 hPa 0,0 l/m 0 min 0 min 0,0 UV-I 0 W/m 10,3 km/h (2 Bft)
29.01.2014 17:42 2,7 C 1,1 C 78 % 1000,5 hPa 0,0 l/m 0 min 0 min 0,0 UV-I 0 W/m 12,9 km/h (3 Bft)
29.01.2014 17:44 2,7 C 1,1 C 78 % 1000,6 hPa 0,0 l/m 0 min 0 min 0,0 UV-I 0 W/m 15,4 km/h (3 Bft)
29.01.2014 17:46 2,7 C 1,1 C 78 % 1000,5 hPa 0,0 l/m 0 min 0 min 0,0 UV-I 0 W/m 7,7 km/h (2 Bft)
29.01.2014 17:48 2,7 C 1,1 C 78 % 1000,6 hPa 0,0 l/m 0 min 0 min 0,0 UV-I 0 W/m 23,2 km/h (4 Bft)
29.01.2014 17:50 2,6 C 0,6 C 78 % 1000,6 hPa 0,0 l/m 0 min 0 min 0,0 UV-I 0 W/m 5,1 km/h (1 Bft)
29.01.2014 17:52 2,6 C 0,6 C 78 % 1000,5 hPa 0,0 l/m 0 min 0 min 0,0 UV-I 0 W/m 20,6 km/h (4 Bft)
29.01.2014 17:54 2,6 C 0,6 C 78 % 1000,6 hPa 0,0 l/m 0 min 0 min 0,0 UV-I 0 W/m 10,3 km/h (2 Bft)
29.01.2014 17:56 2,6 C 0,6 C 78 % 1000,7 hPa 0,0 l/m 0 min 0 min 0,0 UV-I 0 W/m 7,7 km/h (2 Bft)
29.01.2014 17:58 2,6 C 0,6 C 78 % 1000,7 hPa 0,0 l/m 0 min 0 min 0,0 UV-I 0 W/m 15,4 km/h (3 Bft)
29.01.2014 18:00 2,5 C 0,6 C 78 % 1000,7 hPa 0,0 l/m 0 min 0 min 0,0 UV-I 0 W/m 7,7 km/h (2 Bft)
29.01.2014 18:02 2,4 C 0,6 C 78 % 1000,8 hPa 0,0 l/m 0 min 0 min 0,0 UV-I 0 W/m 10,3 km/h (2 Bft)
29.01.2014 18:04 2,4 C 0,6 C 78 % 1000,8 hPa 0,0 l/m 0 min 0 min 0,0 UV-I 0 W/m 12,9 km/h (3 Bft)
29.01.2014 18:06 2,4 C 0,6 C 77 % 1000,8 hPa 0,0 l/m 0 min 0 min 0,0 UV-I 0 W/m 12,9 km/h (3 Bft)
29.01.2014 18:08 2,4 C 0,6 C 77 % 1000,8 hPa 0,0 l/m 0 min 0 min 0,0 UV-I 0 W/m 5,1 km/h (1 Bft)
29.01.2014 18:10 2,4 C 0,6 C 77 % 1000,9 hPa 0,0 l/m 0 min 0 min 0,0 UV-I 0 W/m 10,3 km/h (2 Bft)
29.01.2014 18:12 2,4 C 0,6 C 77 % 1000,9 hPa 0,0 l/m 0 min 0 min 0,0 UV-I 0 W/m 18,0 km/h (3 Bft)
29.01.2014 18:14 2,3 C 0,6 C 77 % 1001,0 hPa 0,0 l/m 0 min 0 min 0,0 UV-I 0 W/m 12,9 km/h (3 Bft)
29.01.2014 18:16 2,3 C 0,6 C 77 % 1001,0 hPa 0,0 l/m 0 min 0 min 0,0 UV-I 0 W/m 15,4 km/h (3 Bft)
29.01.2014 18:18 2,3 C 0,6 C 77 % 1001,0 hPa 0,0 l/m 0 min 0 min 0,0 UV-I 0 W/m 7,7 km/h (2 Bft)
29.01.2014 18:20 2,2 C 0,6 C 77 % 1001,0 hPa 0,0 l/m 0 min 0 min 0,0 UV-I 0 W/m 10,3 km/h (2 Bft)
29.01.2014 18:22 2,2 C 0,6 C 78 % 1001,1 hPa 0,0 l/m 0 min 0 min 0,0 UV-I 0 W/m 7,7 km/h (2 Bft)
29.01.2014 18:24 2,2 C 0,6 C 78 % 1001,1 hPa 0,0 l/m 0 min 0 min 0,0 UV-I 0 W/m 20,6 km/h (4 Bft)
29.01.2014 18:26 2,1 C 0,6 C 78 % 1001,1 hPa 0,0 l/m 0 min 0 min 0,0 UV-I 0 W/m 18,0 km/h (3 Bft)
29.01.2014 18:28 2,1 C 0,6 C 78 % 1001,1 hPa 0,0 l/m 0 min 0 min 0,0 UV-I 0 W/m 15,4 km/h (3 Bft)
29.01.2014 18:30 2,1 C 0,6 C 78 % 1001,2 hPa 0,0 l/m 0 min 0 min 0,0 UV-I 0 W/m 23,2 km/h (4 Bft)
29.01.2014 18:32 2,1 C 0,6 C 78 % 1001,2 hPa 0,0 l/m 0 min 0 min 0,0 UV-I 0 W/m 18,0 km/h (3 Bft)
29.01.2014 18:34 2,1 C 0,6 C 78 % 1001,1 hPa 0,0 l/m 0 min 0 min 0,0 UV-I 0 W/m 12,9 km/h (3 Bft)
29.01.2014 18:36 2,0 C 0,6 C 78 % 1001,2 hPa 0,0 l/m 0 min 0 min 0,0 UV-I 0 W/m 15,4 km/h (3 Bft)
29.01.2014 18:38 2,0 C 0,6 C 78 % 1001,1 hPa 0,0 l/m 0 min 0 min 0,0 UV-I 0 W/m 5,1 km/h (1 Bft)
29.01.2014 18:40 1,9 C 0,6 C 78 % 1001,0 hPa 0,0 l/m 0 min 0 min 0,0 UV-I 0 W/m 18,0 km/h (3 Bft)
29.01.2014 18:42 1,9 C 0,6 C 78 % 1001,2 hPa 0,0 l/m 0 min 0 min 0,0 UV-I 0 W/m 15,4 km/h (3 Bft)
29.01.2014 18:44 1,9 C 0,6 C 78 % 1001,2 hPa 0,0 l/m 0 min 0 min 0,0 UV-I 0 W/m 25,7 km/h (4 Bft)
29.01.2014 18:46 1,9 C 0,6 C 78 % 1001,2 hPa 0,0 l/m 0 min 0 min 0,0 UV-I 0 W/m 18,0 km/h (3 Bft)
29.01.2014 18:48 1,9 C 0,0 C 78 % 1001,3 hPa 0,0 l/m 0 min 0 min 0,0 UV-I 0 W/m 5,1 km/h (1 Bft)
29.01.2014 18:50 1,8 C 0,0 C 78 % 1001,3 hPa 0,0 l/m 0 min 0 min 0,0 UV-I 0 W/m 15,4 km/h (3 Bft)
29.01.2014 18:52 1,8 C 0,0 C 79 % 1001,3 hPa 0,0 l/m 0 min 0 min 0,0 UV-I 0 W/m 12,9 km/h (3 Bft)
29.01.2014 18:54 1,7 C 0,0 C 79 % 1001,4 hPa 0,0 l/m 0 min 0 min 0,0 UV-I 0 W/m 5,1 km/h (1 Bft)
29.01.2014 18:56 1,7 C 0,0 C 79 % 1001,4 hPa 0,0 l/m 0 min 0 min 0,0 UV-I 0 W/m 15,4 km/h (3 Bft)
29.01.2014 18:58 1,7 C 0,0 C 79 % 1001,4 hPa 0,0 l/m 0 min 0 min 0,0 UV-I 0 W/m 18,0 km/h (3 Bft)
29.01.2014 19:00 1,7 C 0,0 C 79 % 1001,4 hPa 0,0 l/m 0 min 0 min 0,0 UV-I 0 W/m 12,9 km/h (3 Bft)
29.01.2014 19:02 1,7 C 0,0 C 79 % 1001,4 hPa 0,0 l/m 0 min 0 min 0,0 UV-I 0 W/m 12,9 km/h (3 Bft)
29.01.2014 19:04 1,7 C 0,0 C 79 % 1001,4 hPa 0,0 l/m 0 min 0 min 0,0 UV-I 0 W/m 18,0 km/h (3 Bft)
29.01.2014 19:06 1,6 C 0,0 C 79 % 1001,4 hPa 0,0 l/m 0 min 0 min 0,0 UV-I 0 W/m 10,3 km/h (2 Bft)
29.01.2014 19:08 1,6 C 0,0 C 79 % 1001,4 hPa 0,0 l/m 0 min 0 min 0,0 UV-I 0 W/m 12,9 km/h (3 Bft)
29.01.2014 19:10 1,6 C 0,0 C 79 % 1001,4 hPa 0,0 l/m 0 min 0 min 0,0 UV-I 0 W/m 18,0 km/h (3 Bft)
29.01.2014 19:12 1,5 C 0,0 C 79 % 1001,4 hPa 0,0 l/m 0 min 0 min 0,0 UV-I 0 W/m 18,0 km/h (3 Bft)
29.01.2014 19:14 1,5 C 0,0 C 79 % 1001,4 hPa 0,0 l/m 0 min 0 min 0,0 UV-I 0 W/m 10,3 km/h (2 Bft)
29.01.2014 19:16 1,5 C 0,0 C 80 % 1001,4 hPa 0,0 l/m 0 min 0 min 0,0 UV-I 0 W/m 10,3 km/h (2 Bft)
29.01.2014 19:18 1,4 C 0,0 C 80 % 1001,4 hPa 0,0 l/m 0 min 0 min 0,0 UV-I 0 W/m 7,7 km/h (2 Bft)
29.01.2014 19:20 1,4 C -0,6 C 80 % 1001,5 hPa 0,0 l/m 0 min 0 min 0,0 UV-I 0 W/m 0,0 km/h (0 Bft)
29.01.2014 19:22 1,3 C -0,6 C 80 % 1001,5 hPa 0,0 l/m 0 min 0 min 0,0 UV-I 0 W/m 18,0 km/h (3 Bft)
29.01.2014 19:24 1,3 C 0,0 C 80 % 1001,6 hPa 0,0 l/m 0 min 0 min 0,0 UV-I 0 W/m 7,7 km/h (2 Bft)
29.01.2014 19:26 1,3 C 0,0 C 80 % 1001,6 hPa 0,0 l/m 0 min 0 min 0,0 UV-I 0 W/m 18,0 km/h (3 Bft)
29.01.2014 19:28 1,3 C 0,0 C 80 % 1001,5 hPa 0,0 l/m 0 min 0 min 0,0 UV-I 0 W/m 10,3 km/h (2 Bft)
29.01.2014 19:30 1,3 C 0,0 C 80 % 1001,6 hPa 0,0 l/m 0 min 0 min 0,0 UV-I 0 W/m 7,7 km/h (2 Bft)
29.01.2014 19:32 1,3 C 0,0 C 80 % 1001,6 hPa 0,0 l/m 0 min 0 min 0,0 UV-I 0 W/m 12,9 km/h (3 Bft)
29.01.2014 19:34 1,2 C -0,6 C 80 % 1001,5 hPa 0,0 l/m 0 min 0 min 0,0 UV-I 0 W/m 2,6 km/h (1 Bft)
29.01.2014 19:36 1,2 C -0,6 C 80 % 1001,6 hPa 0,0 l/m 0 min 0 min 0,0 UV-I 0 W/m 23,2 km/h (4 Bft)
29.01.2014 19:38 1,2 C -0,6 C 80 % 1001,6 hPa 0,0 l/m 0 min 0 min 0,0 UV-I 0 W/m 15,4 km/h (3 Bft)
29.01.2014 19:40 1,2 C -0,6 C 80 % 1001,6 hPa 0,0 l/m 0 min 0 min 0,0 UV-I 0 W/m 18,0 km/h (3 Bft)
29.01.2014 19:42 1,2 C -0,6 C 80 % 1001,6 hPa 0,0 l/m 0 min 0 min 0,0 UV-I 0 W/m 15,4 km/h (3 Bft)
29.01.2014 19:44 1,2 C -0,6 C 80 % 1001,7 hPa 0,0 l/m 0 min 0 min 0,0 UV-I 0 W/m 12,9 km/h (3 Bft)
29.01.2014 19:46 1,2 C -0,6 C 80 % 1001,7 hPa 0,0 l/m 0 min 0 min 0,0 UV-I 0 W/m 12,9 km/h (3 Bft)
29.01.2014 19:48 1,2 C -0,6 C 80 % 1001,7 hPa 0,0 l/m 0 min 0 min 0,0 UV-I 0 W/m 12,9 km/h (3 Bft)
29.01.2014 19:50 1,1 C -0,6 C 80 % 1001,7 hPa 0,0 l/m 0 min 0 min 0,0 UV-I 0 W/m 10,3 km/h (2 Bft)
29.01.2014 19:52 1,1 C -0,6 C 80 % 1001,7 hPa 0,0 l/m 0 min 0 min 0,0 UV-I 0 W/m 5,1 km/h (1 Bft)
29.01.2014 19:54 1,1 C -0,6 C 80 % 1001,7 hPa 0,0 l/m 0 min 0 min 0,0 UV-I 0 W/m 12,9 km/h (3 Bft)
29.01.2014 19:56 1,1 C -0,6 C 80 % 1001,7 hPa 0,0 l/m 0 min 0 min 0,0 UV-I 0 W/m 12,9 km/h (3 Bft)
29.01.2014 19:58 1,1 C -0,6 C 80 % 1001,7 hPa 0,0 l/m 0 min 0 min 0,0 UV-I 0 W/m 12,9 km/h (3 Bft)
29.01.2014 20:00 1,0 C -0,6 C 81 % 1001,8 hPa 0,0 l/m 0 min 0 min 0,0 UV-I 0 W/m 10,3 km/h (2 Bft)
29.01.2014 20:02 1,0 C -0,6 C 81 % 1001,8 hPa 0,0 l/m 0 min 0 min 0,0 UV-I 0 W/m 7,7 km/h (2 Bft)
29.01.2014 20:04 0,9 C -0,6 C 81 % 1001,9 hPa 0,0 l/m 0 min 0 min 0,0 UV-I 0 W/m 18,0 km/h (3 Bft)
29.01.2014 20:06 0,9 C -0,6 C 81 % 1001,9 hPa 0,0 l/m 0 min 0 min 0,0 UV-I 0 W/m 23,2 km/h (4 Bft)
29.01.2014 20:08 0,9 C -0,6 C 81 % 1001,9 hPa 0,0 l/m 0 min 0 min 0,0 UV-I 0 W/m 12,9 km/h (3 Bft)
29.01.2014 20:10 0,9 C -0,6 C 81 % 1001,8 hPa 0,0 l/m 0 min 0 min 0,0 UV-I 0 W/m 20,6 km/h (4 Bft)
29.01.2014 20:12 0,9 C -0,6 C 81 % 1001,8 hPa 0,0 l/m 0 min 0 min 0,0 UV-I 0 W/m 15,4 km/h (3 Bft)
29.01.2014 20:14 0,9 C -0,6 C 81 % 1001,8 hPa 0,0 l/m 0 min 0 min 0,0 UV-I 0 W/m 15,4 km/h (3 Bft)
29.01.2014 20:16 0,9 C -0,6 C 81 % 1001,9 hPa 0,0 l/m 0 min 0 min 0,0 UV-I 0 W/m 15,4 km/h (3 Bft)
29.01.2014 20:18 0,9 C -0,6 C 81 % 1001,8 hPa 0,0 l/m 0 min 0 min 0,0 UV-I 0 W/m 12,9 km/h (3 Bft)
29.01.2014 20:20 0,9 C -0,6 C 81 % 1001,9 hPa 0,0 l/m 0 min 0 min 0,0 UV-I 0 W/m 12,9 km/h (3 Bft)
29.01.2014 20:22 0,9 C -0,6 C 81 % 1001,9 hPa 0,0 l/m 0 min 0 min 0,0 UV-I 0 W/m 10,3 km/h (2 Bft)
29.01.2014 20:24 0,9 C -0,6 C 81 % 1002,0 hPa 0,0 l/m 0 min 0 min 0,0 UV-I 0 W/m 10,3 km/h (2 Bft)
29.01.2014 20:26 0,8 C -0,6 C 81 % 1002,0 hPa 0,0 l/m 0 min 0 min 0,0 UV-I 0 W/m 20,6 km/h (4 Bft)
29.01.2014 20:28 0,8 C -0,6 C 81 % 1002,1 hPa 0,0 l/m 0 min 0 min 0,0 UV-I 0 W/m 18,0 km/h (3 Bft)
29.01.2014 20:30 0,8 C -0,6 C 81 % 1002,2 hPa 0,0 l/m 0 min 0 min 0,0 UV-I 0 W/m 12,9 km/h (3 Bft)
29.01.2014 20:32 0,8 C -0,6 C 81 % 1002,1 hPa 0,0 l/m 0 min 0 min 0,0 UV-I 0 W/m 12,9 km/h (3 Bft)
29.01.2014 20:34 0,8 C -0,6 C 81 % 1002,2 hPa 0,0 l/m 0 min 0 min 0,0 UV-I 0 W/m 12,9 km/h (3 Bft)
29.01.2014 20:36 0,8 C -0,6 C 81 % 1002,1 hPa 0,0 l/m 0 min 0 min 0,0 UV-I 0 W/m 12,9 km/h (3 Bft)
29.01.2014 20:38 0,8 C -0,6 C 81 % 1002,2 hPa 0,0 l/m 0 min 0 min 0,0 UV-I 0 W/m 10,3 km/h (2 Bft)
29.01.2014 20:40 0,7 C -0,6 C 81 % 1002,2 hPa 0,0 l/m 0 min 0 min 0,0 UV-I 0 W/m 18,0 km/h (3 Bft)
29.01.2014 20:42 0,7 C -0,6 C 81 % 1002,3 hPa 0,0 l/m 0 min 0 min 0,0 UV-I 0 W/m 10,3 km/h (2 Bft)
29.01.2014 20:44 0,7 C -0,6 C 81 % 1002,3 hPa 0,0 l/m 0 min 0 min 0,0 UV-I 0 W/m 10,3 km/h (2 Bft)
29.01.2014 20:46 0,7 C -1,1 C 81 % 1002,2 hPa 0,0 l/m 0 min 0 min 0,0 UV-I 0 W/m 7,7 km/h (2 Bft)
29.01.2014 20:48 0,6 C -0,6 C 81 % 1002,2 hPa 0,0 l/m 0 min 0 min 0,0 UV-I 0 W/m 10,3 km/h (2 Bft)
29.01.2014 20:50 0,6 C -0,6 C 82 % 1002,3 hPa 0,0 l/m 0 min 0 min 0,0 UV-I 0 W/m 10,3 km/h (2 Bft)
29.01.2014 20:52 0,6 C -0,6 C 82 % 1002,3 hPa 0,0 l/m 0 min 0 min 0,0 UV-I 0 W/m 10,3 km/h (2 Bft)
29.01.2014 20:54 0,6 C -0,6 C 82 % 1002,2 hPa 0,0 l/m 0 min 0 min 0,0 UV-I 0 W/m 12,9 km/h (3 Bft)
29.01.2014 20:56 0,6 C -1,1 C 82 % 1002,3 hPa 0,0 l/m 0 min 0 min 0,0 UV-I 0 W/m 5,1 km/h (1 Bft)
29.01.2014 20:58 0,6 C -1,1 C 82 % 1002,3 hPa 0,0 l/m 0 min 0 min 0,0 UV-I 0 W/m 12,9 km/h (3 Bft)
29.01.2014 21:00 0,5 C -1,1 C 82 % 1002,4 hPa 0,0 l/m 0 min 0 min 0,0 UV-I 0 W/m 10,3 km/h (2 Bft)
29.01.2014 21:02 0,5 C -1,1 C 82 % 1002,5 hPa 0,0 l/m 0 min 0 min 0,0 UV-I 0 W/m 12,9 km/h (3 Bft)
29.01.2014 21:04 0,5 C -1,1 C 82 % 1002,4 hPa 0,0 l/m 0 min 0 min 0,0 UV-I 0 W/m 12,9 km/h (3 Bft)
29.01.2014 21:06 0,5 C -1,1 C 82 % 1002,5 hPa 0,0 l/m 0 min 0 min 0,0 UV-I 0 W/m 18,0 km/h (3 Bft)
29.01.2014 21:08 0,5 C -1,1 C 82 % 1002,4 hPa 0,0 l/m 0 min 0 min 0,0 UV-I 0 W/m 12,9 km/h (3 Bft)
29.01.2014 21:10 0,5 C -1,1 C 82 % 1002,4 hPa 0,0 l/m 0 min 0 min 0,0 UV-I 0 W/m 2,6 km/h (1 Bft)
29.01.2014 21:12 0,5 C -1,1 C 82 % 1002,4 hPa 0,0 l/m 0 min 0 min 0,0 UV-I 0 W/m 15,4 km/h (3 Bft)
29.01.2014 21:14 0,5 C -1,1 C 82 % 1002,4 hPa 0,0 l/m 0 min 0 min 0,0 UV-I 0 W/m 20,6 km/h (4 Bft)
29.01.2014 21:16 0,5 C -1,1 C 83 % 1002,5 hPa 0,0 l/m 0 min 0 min 0,0 UV-I 0 W/m 5,1 km/h (1 Bft)
29.01.2014 21:18 0,5 C -1,1 C 83 % 1002,5 hPa 0,0 l/m 0 min 0 min 0,0 UV-I 0 W/m 15,4 km/h (3 Bft)
29.01.2014 21:20 0,5 C -1,1 C 83 % 1002,6 hPa 0,0 l/m 0 min 0 min 0,0 UV-I 0 W/m 12,9 km/h (3 Bft)
29.01.2014 21:22 0,5 C -1,1 C 83 % 1002,6 hPa 0,0 l/m 0 min 0 min 0,0 UV-I 0 W/m 7,7 km/h (2 Bft)
29.01.2014 21:24 0,5 C -1,1 C 83 % 1002,6 hPa 0,0 l/m 0 min 0 min 0,0 UV-I 0 W/m 10,3 km/h (2 Bft)
29.01.2014 21:26 0,5 C -1,1 C 83 % 1002,6 hPa 0,0 l/m 0 min 0 min 0,0 UV-I 0 W/m 5,1 km/h (1 Bft)
29.01.2014 21:28 0,5 C -1,1 C 83 % 1002,5 hPa 0,0 l/m 0 min 0 min 0,0 UV-I 0 W/m 5,1 km/h (1 Bft)
29.01.2014 21:30 0,5 C -1,1 C 83 % 1002,6 hPa 0,0 l/m 0 min 0 min 0,0 UV-I 0 W/m 2,6 km/h (1 Bft)
29.01.2014 21:32 0,4 C -1,1 C 83 % 1002,5 hPa 0,0 l/m 0 min 0 min 0,0 UV-I 0 W/m 0,0 km/h (0 Bft)
29.01.2014 21:34 0,4 C -1,1 C 83 % 1002,6 hPa 0,0 l/m 0 min 0 min 0,0 UV-I 0 W/m 2,6 km/h (1 Bft)
29.01.2014 21:36 0,4 C -1,1 C 83 % 1002,6 hPa 0,0 l/m 0 min 0 min 0,0 UV-I 0 W/m 10,3 km/h (2 Bft)
29.01.2014 21:38 0,4 C -1,1 C 83 % 1002,7 hPa 0,0 l/m 0 min 0 min 0,0 UV-I 0 W/m 7,7 km/h (2 Bft)
29.01.2014 21:40 0,3 C -1,1 C 83 % 1002,7 hPa 0,0 l/m 0 min 0 min 0,0 UV-I 0 W/m 10,3 km/h (2 Bft)
29.01.2014 21:42 0,3 C -1,1 C 83 % 1002,8 hPa 0,0 l/m 0 min 0 min 0,0 UV-I 0 W/m 5,1 km/h (1 Bft)
29.01.2014 21:44 0,3 C -1,1 C 84 % 1002,7 hPa 0,0 l/m 0 min 0 min 0,0 UV-I 0 W/m 2,6 km/h (1 Bft)
29.01.2014 21:46 0,3 C -1,1 C 84 % 1002,8 hPa 0,0 l/m 0 min 0 min 0,0 UV-I 0 W/m 12,9 km/h (3 Bft)
29.01.2014 21:48 0,3 C -1,1 C 84 % 1002,8 hPa 0,0 l/m 0 min 0 min 0,0 UV-I 0 W/m 12,9 km/h (3 Bft)
29.01.2014 21:50 0,3 C -1,1 C 84 % 1002,8 hPa 0,0 l/m 0 min 0 min 0,0 UV-I 0 W/m 18,0 km/h (3 Bft)
29.01.2014 21:52 0,4 C -1,1 C 84 % 1002,7 hPa 0,0 l/m 0 min 0 min 0,0 UV-I 0 W/m 10,3 km/h (2 Bft)
29.01.2014 21:54 0,4 C -1,1 C 84 % 1002,8 hPa 0,0 l/m 0 min 0 min 0,0 UV-I 0 W/m 12,9 km/h (3 Bft)
29.01.2014 21:56 0,4 C -1,1 C 84 % 1002,7 hPa 0,0 l/m 0 min 0 min 0,0 UV-I 0 W/m 7,7 km/h (2 Bft)
29.01.2014 21:58 0,4 C -1,1 C 83 % 1002,8 hPa 0,0 l/m 0 min 0 min 0,0 UV-I 0 W/m 10,3 km/h (2 Bft)
29.01.2014 22:00 0,4 C -1,1 C 83 % 1002,8 hPa 0,0 l/m 0 min 0 min 0,0 UV-I 0 W/m 5,1 km/h (1 Bft)
29.01.2014 22:02 0,4 C -1,1 C 83 % 1002,8 hPa 0,0 l/m 0 min 0 min 0,0 UV-I 0 W/m 12,9 km/h (3 Bft)
29.01.2014 22:04 0,5 C -1,1 C 83 % 1002,9 hPa 0,0 l/m 0 min 0 min 0,0 UV-I 0 W/m 12,9 km/h (3 Bft)
29.01.2014 22:06 0,5 C -1,1 C 83 % 1002,9 hPa 0,0 l/m 0 min 0 min 0,0 UV-I 0 W/m 10,3 km/h (2 Bft)
29.01.2014 22:08 0,5 C -1,1 C 83 % 1002,9 hPa 0,0 l/m 0 min 0 min 0,0 UV-I 0 W/m 10,3 km/h (2 Bft)
29.01.2014 22:10 0,5 C -1,1 C 83 % 1002,9 hPa 0,0 l/m 0 min 0 min 0,0 UV-I 0 W/m 7,7 km/h (2 Bft)
29.01.2014 22:12 0,5 C -1,1 C 83 % 1002,9 hPa 0,0 l/m 0 min 0 min 0,0 UV-I 0 W/m 15,4 km/h (3 Bft)
29.01.2014 22:14 0,4 C -1,1 C 83 % 1002,8 hPa 0,0 l/m 0 min 0 min 0,0 UV-I 0 W/m 15,4 km/h (3 Bft)
29.01.2014 22:16 0,5 C -1,1 C 83 % 1002,8 hPa 0,0 l/m 0 min 0 min 0,0 UV-I 0 W/m 10,3 km/h (2 Bft)
29.01.2014 22:18 0,4 C -1,1 C 83 % 1002,9 hPa 0,0 l/m 0 min 0 min 0,0 UV-I 0 W/m 20,6 km/h (4 Bft)
29.01.2014 22:20 0,5 C -1,1 C 83 % 1002,9 hPa 0,0 l/m 0 min 0 min 0,0 UV-I 0 W/m 7,7 km/h (2 Bft)
29.01.2014 22:22 0,5 C -1,1 C 83 % 1002,9 hPa 0,0 l/m 0 min 0 min 0,0 UV-I 0 W/m 7,7 km/h (2 Bft)
29.01.2014 22:24 0,5 C -1,1 C 83 % 1002,8 hPa 0,0 l/m 0 min 0 min 0,0 UV-I 0 W/m 0,0 km/h (0 Bft)
29.01.2014 22:26 0,5 C -1,1 C 83 % 1002,8 hPa 0,0 l/m 0 min 0 min 0,0 UV-I 0 W/m 2,6 km/h (1 Bft)
29.01.2014 22:28 0,5 C -1,1 C 83 % 1002,9 hPa 0,0 l/m 0 min 0 min 0,0 UV-I 0 W/m 5,1 km/h (1 Bft)
29.01.2014 22:30 0,5 C -1,1 C 83 % 1003,0 hPa 0,0 l/m 0 min 0 min 0,0 UV-I 0 W/m 0,0 km/h (0 Bft)
29.01.2014 22:32 0,5 C -1,1 C 83 % 1003,2 hPa 0,0 l/m 0 min 0 min 0,0 UV-I 0 W/m 7,7 km/h (2 Bft)
29.01.2014 22:34 0,5 C -1,1 C 83 % 1003,2 hPa 0,0 l/m 0 min 0 min 0,0 UV-I 0 W/m 7,7 km/h (2 Bft)
29.01.2014 22:36 0,5 C -1,1 C 83 % 1003,1 hPa 0,0 l/m 0 min 0 min 0,0 UV-I 0 W/m 10,3 km/h (2 Bft)
29.01.2014 22:38 0,5 C -1,1 C 83 % 1003,1 hPa 0,0 l/m 0 min 0 min 0,0 UV-I 0 W/m 10,3 km/h (2 Bft)
29.01.2014 22:40 0,4 C -1,1 C 83 % 1003,1 hPa 0,0 l/m 0 min 0 min 0,0 UV-I 0 W/m 15,4 km/h (3 Bft)
29.01.2014 22:42 0,5 C -0,6 C 83 % 1003,2 hPa 0,0 l/m 0 min 0 min 0,0 UV-I 0 W/m 15,4 km/h (3 Bft)
29.01.2014 22:44 0,5 C -0,6 C 83 % 1003,1 hPa 0,0 l/m 0 min 0 min 0,0 UV-I 0 W/m 12,9 km/h (3 Bft)
29.01.2014 22:46 0,5 C -0,6 C 83 % 1003,1 hPa 0,0 l/m 0 min 0 min 0,0 UV-I 0 W/m 5,1 km/h (1 Bft)
29.01.2014 22:48 0,5 C -0,6 C 83 % 1003,1 hPa 0,0 l/m 0 min 0 min 0,0 UV-I 0 W/m 25,7 km/h (4 Bft)
29.01.2014 22:50 0,5 C -0,6 C 83 % 1003,1 hPa 0,0 l/m 0 min 0 min 0,0 UV-I 0 W/m 10,3 km/h (2 Bft)
29.01.2014 22:52 0,5 C -1,1 C 83 % 1003,1 hPa 0,0 l/m 0 min 0 min 0,0 UV-I 0 W/m 5,1 km/h (1 Bft)
29.01.2014 22:54 0,5 C -0,6 C 83 % 1003,0 hPa 0,0 l/m 0 min 0 min 0,0 UV-I 0 W/m 7,7 km/h (2 Bft)
29.01.2014 22:56 0,5 C -0,6 C 83 % 1003,1 hPa 0,0 l/m 0 min 0 min 0,0 UV-I 0 W/m 10,3 km/h (2 Bft)
29.01.2014 22:58 0,5 C -0,6 C 83 % 1003,1 hPa 0,0 l/m 0 min 0 min 0,0 UV-I 0 W/m 7,7 km/h (2 Bft)
29.01.2014 23:00 0,5 C -0,6 C 83 % 1003,1 hPa 0,0 l/m 0 min 0 min 0,0 UV-I 0 W/m 10,3 km/h (2 Bft)
29.01.2014 23:02 0,5 C -0,6 C 83 % 1003,0 hPa 0,0 l/m 0 min 0 min 0,0 UV-I 0 W/m 5,1 km/h (1 Bft)
29.01.2014 23:04 0,5 C -0,6 C 83 % 1003,0 hPa 0,0 l/m 0 min 0 min 0,0 UV-I 0 W/m 7,7 km/h (2 Bft)
29.01.2014 23:06 0,5 C -0,6 C 83 % 1002,9 hPa 0,0 l/m 0 min 0 min 0,0 UV-I 0 W/m 10,3 km/h (2 Bft)
29.01.2014 23:08 0,5 C -0,6 C 83 % 1002,9 hPa 0,0 l/m 0 min 0 min 0,0 UV-I 0 W/m 10,3 km/h (2 Bft)
29.01.2014 23:10 0,5 C -0,6 C 83 % 1002,8 hPa 0,0 l/m 0 min 0 min 0,0 UV-I 0 W/m 18,0 km/h (3 Bft)
29.01.2014 23:12 0,5 C -0,6 C 83 % 1002,9 hPa 0,0 l/m 0 min 0 min 0,0 UV-I 0 W/m 12,9 km/h (3 Bft)
29.01.2014 23:14 0,5 C -0,6 C 83 % 1002,9 hPa 0,0 l/m 0 min 0 min 0,0 UV-I 0 W/m 12,9 km/h (3 Bft)
29.01.2014 23:16 0,6 C -0,6 C 83 % 1002,9 hPa 0,0 l/m 0 min 0 min 0,0 UV-I 0 W/m 10,3 km/h (2 Bft)
29.01.2014 23:18 0,6 C -0,6 C 83 % 1002,9 hPa 0,0 l/m 0 min 0 min 0,0 UV-I 0 W/m 5,1 km/h (1 Bft)
29.01.2014 23:20 0,6 C -0,6 C 83 % 1002,9 hPa 0,0 l/m 0 min 0 min 0,0 UV-I 0 W/m 20,6 km/h (4 Bft)
29.01.2014 23:22 0,7 C -0,6 C 83 % 1002,9 hPa 0,0 l/m 0 min 0 min 0,0 UV-I 0 W/m 2,6 km/h (1 Bft)
29.01.2014 23:24 0,7 C -0,6 C 83 % 1002,9 hPa 0,0 l/m 0 min 0 min 0,0 UV-I 0 W/m 5,1 km/h (1 Bft)
29.01.2014 23:26 0,7 C -0,6 C 83 % 1002,9 hPa 0,0 l/m 0 min 0 min 0,0 UV-I 0 W/m 5,1 km/h (1 Bft)
29.01.2014 23:28 0,7 C -0,6 C 83 % 1003,0 hPa 0,0 l/m 0 min 0 min 0,0 UV-I 0 W/m 10,3 km/h (2 Bft)
29.01.2014 23:30 0,7 C -0,6 C 83 % 1002,9 hPa 0,0 l/m 0 min 0 min 0,0 UV-I 0 W/m 15,4 km/h (3 Bft)
29.01.2014 23:32 0,7 C -0,6 C 83 % 1002,9 hPa 0,0 l/m 0 min 0 min 0,0 UV-I 0 W/m 5,1 km/h (1 Bft)
29.01.2014 23:34 0,7 C -0,6 C 83 % 1002,9 hPa 0,0 l/m 0 min 0 min 0,0 UV-I 0 W/m 18,0 km/h (3 Bft)
29.01.2014 23:36 0,7 C -0,6 C 83 % 1002,8 hPa 0,0 l/m 0 min 0 min 0,0 UV-I 0 W/m 12,9 km/h (3 Bft)
29.01.2014 23:38 0,7 C -0,6 C 83 % 1002,9 hPa 0,0 l/m 0 min 0 min 0,0 UV-I 0 W/m 10,3 km/h (2 Bft)
29.01.2014 23:40 0,7 C -0,6 C 83 % 1002,8 hPa 0,0 l/m 0 min 0 min 0,0 UV-I 0 W/m 0,0 km/h (0 Bft)
29.01.2014 23:42 0,7 C -0,6 C 83 % 1002,9 hPa 0,0 l/m 0 min 0 min 0,0 UV-I 0 W/m 18,0 km/h (3 Bft)
29.01.2014 23:44 0,7 C -0,6 C 83 % 1002,9 hPa 0,0 l/m 0 min 0 min 0,0 UV-I 0 W/m 2,6 km/h (1 Bft)
29.01.2014 23:46 0,7 C -0,6 C 83 % 1002,8 hPa 0,0 l/m 0 min 0 min 0,0 UV-I 0 W/m 15,4 km/h (3 Bft)
29.01.2014 23:48 0,7 C -0,6 C 83 % 1002,8 hPa 0,0 l/m 0 min 0 min 0,0 UV-I 0 W/m 5,1 km/h (1 Bft)
29.01.2014 23:50 0,7 C -0,6 C 83 % 1002,9 hPa 0,0 l/m 0 min 0 min 0,0 UV-I 0 W/m 5,1 km/h (1 Bft)
29.01.2014 23:52 0,8 C -0,6 C 83 % 1002,9 hPa 0,0 l/m 0 min 0 min 0,0 UV-I 0 W/m 12,9 km/h (3 Bft)
29.01.2014 23:54 0,8 C -0,6 C 83 % 1003,0 hPa 0,0 l/m 0 min 0 min 0,0 UV-I 0 W/m 18,0 km/h (3 Bft)
29.01.2014 23:56 0,8 C -0,6 C 83 % 1002,9 hPa 0,0 l/m 0 min 0 min 0,0 UV-I 0 W/m 12,9 km/h (3 Bft)
29.01.2014 23:58 0,8 C -0,6 C 83 % 1003,0 hPa 0,0 l/m 0 min 0 min 0,0 UV-I 0 W/m 7,7 km/h (2 Bft)
_ Min-Zeit 08:00 07:02 14:36 00:00 - - - - - 00:22
Minimum _ -0,1 C -1,7 C 70 % 998,0 hPa - - - - - 0,0 km/h (0 Bft)
_ Max-Zeit 14:32 14:26 02:56 22:32 00:00 10:10 00:00 00:00 13:16 12:04
Maximum _ 5,1 C 3,9 C 95 % 1003,2 hPa 0,0 l/m 2 min 0 min 0,0 UV-I 311 W/m 33,5 km/h
O (5 Bft)
Durchschnitt _ 1,8 C 0,4 C 83 % 1000,0 hPa #0,0 l/m #4:04 h #0 min. 0,0 UV-I 143 W/m 11,6 km/h (2 Bft)
© 2014 W. Hausmann